Latitude: N 50° 09' 49" Longitude: W 05° 11' 53" Elevation: 168m ASL

There is 1 visitor online

Adverts

<- Previous Day | Today | Next Day ->

All Data for 11 February 2019

Time
A - D
Temp
A - D
Dew Point
A - D
Humidity
A - D
Pressure
A - D
Wind
A - D
Wind Dir Gust
A - D
Rain Rate
A - D
Rain Total
00:00 7.5 3.5 76 1016.4 12.1 NW 19.0 0.0 0.0
00:01 7.5 3.5 76 1016.5 13.0 SW 19.0 0.0 0.0
00:02 7.5 3.5 76 1016.5 13.0 SW 19.0 0.0 0.0
00:03 7.5 3.5 76 1016.6 15.2 SW 19.0 0.0 0.0
00:04 7.5 3.5 76 1016.5 20.6 N 20.6 0.0 0.0
00:05 7.5 3.5 76 1016.4 19.7 WNW 20.6 0.0 0.0
00:06 7.6 3.6 76 1016.4 19.0 NW 20.6 0.0 0.0
00:07 7.6 3.5 75 1016.4 18.3 NW 20.6 0.0 0.0
00:08 7.6 3.6 76 1016.4 15.2 W 20.6 0.0 0.0
00:09 7.6 3.6 76 1016.5 15.9 WNW 20.6 0.0 0.0
00:10 7.6 3.5 75 1016.4 13.0 WNW 20.6 0.0 0.0
00:11 7.5 3.4 75 1016.5 10.7 W 20.6 0.0 0.0
00:12 7.6 3.5 75 1016.4 22.1 NW 22.1 0.0 0.0
00:13 7.6 3.5 75 1016.4 15.9 NW 22.1 0.0 0.0
00:14 7.5 3.4 75 1016.4 12.1 NW 22.1 0.0 0.0
00:15 7.5 3.4 75 1016.4 16.8 NW 22.1 0.0 0.0
00:16 7.5 3.5 76 1016.4 21.3 SW 22.1 0.0 0.0
00:17 7.5 3.5 76 1016.5 15.2 NW 22.1 0.0 0.0
00:18 7.5 3.5 76 1016.5 13.0 WNW 22.1 0.0 0.0
00:19 7.5 3.5 76 1016.6 15.2 NW 22.1 0.0 0.0
00:20 7.5 3.5 76 1016.6 15.2 SW 22.1 0.0 0.0
00:21 7.4 3.4 76 1016.7 12.1 SW 22.1 0.0 0.0
00:22 7.5 3.5 76 1016.6 12.1 W 21.3 0.0 0.0
00:23 7.5 3.5 76 1016.4 20.6 NW 21.3 0.0 0.0
00:24 7.5 3.5 76 1016.4 19.0 NW 21.3 0.0 0.0
00:25 7.5 3.5 76 1016.6 13.0 NW 21.3 0.0 0.0
00:26 7.5 3.5 76 1016.6 13.0 NW 21.3 0.0 0.0
00:27 7.5 3.5 76 1016.7 17.4 N 20.6 0.0 0.0
00:28 7.5 3.5 76 1016.7 18.3 N 20.6 0.0 0.0
00:29 7.6 3.6 76 1016.8 17.4 NNW 20.6 0.0 0.0
00:30 7.5 3.5 76 1016.7 18.3 NW 20.6 0.0 0.0
00:31 7.6 3.6 76 1016.7 14.5 E 20.6 0.0 0.0
00:32 7.6 3.6 76 1016.8 13.6 NW 20.6 0.0 0.0
00:33 7.6 3.6 76 1016.9 15.9 SW 20.6 0.0 0.0
00:34 7.6 3.8 77 1016.9 21.3 WSW 21.3 0.0 0.0
00:35 7.6 3.6 76 1016.9 13.6 SW 21.3 0.0 0.0
00:36 7.6 3.6 76 1016.9 15.9 SW 21.3 0.0 0.0
00:37 7.6 3.6 76 1017.0 11.4 WSW 21.3 0.0 0.0
00:38 7.6 3.6 76 1016.7 15.9 WNW 21.3 0.0 0.0
00:39 7.6 3.6 76 1016.7 14.5 NW 21.3 0.0 0.0
00:40 7.6 3.6 76 1016.8 15.2 NW 21.3 0.0 0.0
00:41 7.6 3.6 76 1016.9 13.0 W 21.3 0.0 0.0
00:42 7.6 3.6 76 1017.0 15.9 SW 21.3 0.0 0.0
00:43 7.6 3.6 76 1016.9 15.9 SW 21.3 0.0 0.0
00:44 7.5 3.5 76 1016.9 18.3 WNW 20.6 0.0 0.0
00:45 7.5 3.5 76 1016.9 18.3 WNW 18.3 0.0 0.0
00:46 7.5 3.5 76 1016.9 24.4 NW 24.4 0.0 0.0
00:47 7.5 3.5 76 1016.8 13.0 WSW 24.4 0.0 0.0
00:48 7.5 3.5 76 1016.9 16.8 SW 24.4 0.0 0.0
00:49 7.5 3.5 76 1016.8 15.9 S 24.4 0.0 0.0
00:50 7.5 3.5 76 1016.9 16.8 NW 24.4 0.0 0.0
00:51 7.5 3.5 76 1016.8 15.2 W 24.4 0.0 0.0
00:52 7.5 3.5 76 1016.8 17.4 W 24.4 0.0 0.0
00:53 7.5 3.5 76 1016.9 20.6 WSW 24.4 0.0 0.0
00:54 7.4 3.4 76 1016.9 12.1 SW 24.4 0.0 0.0
00:55 7.4 3.4 76 1016.9 13.0 SW 24.4 0.0 0.0
00:56 7.4 3.4 76 1016.7 15.9 SW 20.6 0.0 0.0
00:57 7.4 3.4 76 1016.9 16.8 SE 20.6 0.0 0.0
00:58 7.4 3.4 76 1016.7 15.2 SW 20.6 0.0 0.0
00:59 7.4 3.4 76 1017.0 16.8 NW 20.6 0.0 0.0
01:00 7.4 3.4 76 1016.9 19.0 NW 20.6 0.0 0.0
01:01 7.4 3.4 76 1016.9 12.1 W 20.6 0.0 0.0
01:02 7.4 3.4 76 1016.9 12.1 W 20.6 0.0 0.0
01:03 7.4 3.4 76 1017.1 17.4 W 19.0 0.0 0.0
01:04 7.4 3.4 76 1017.0 16.8 SE 19.0 0.0 0.0
01:05 7.4 3.4 76 1016.9 14.5 NW 19.0 0.0 0.0
01:06 7.4 3.4 76 1017.1 19.7 NW 19.7 0.0 0.0
01:07 7.4 3.4 76 1017.1 13.0 W 19.7 0.0 0.0
01:08 7.4 3.4 76 1016.9 16.8 W 19.7 0.0 0.0
01:09 7.4 3.4 76 1016.9 19.7 NW 19.7 0.0 0.0
01:10 7.4 3.4 76 1017.1 19.7 NW 19.7 0.0 0.0
01:11 7.4 3.4 76 1017.1 13.6 NW 19.7 0.0 0.0
01:12 7.4 3.4 76 1017.0 16.8 W 19.7 0.0 0.0
01:13 7.4 3.4 76 1017.0 13.6 NW 19.7 0.0 0.0
01:14 7.4 3.4 76 1017.1 15.2 SW 19.7 0.0 0.0
01:15 7.4 3.4 76 1016.9 18.3 NW 19.7 0.0 0.0
01:16 7.4 3.4 76 1017.0 15.2 NW 19.7 0.0 0.0
01:17 7.4 3.4 76 1017.1 18.3 W 19.7 0.0 0.0
01:18 7.4 3.4 76 1017.1 17.4 SE 19.7 0.0 0.0
01:19 7.4 3.4 76 1017.1 15.9 SW 19.7 0.0 0.0
01:20 7.4 3.4 76 1017.1 16.8 SW 19.7 0.0 0.0
01:21 7.4 3.6 77 1017.1 18.3 NW 18.3 0.0 0.0
01:22 7.4 3.4 76 1017.2 13.0 SW 18.3 0.0 0.0
01:23 7.4 3.4 76 1017.2 11.4 SE 18.3 0.0 0.0
01:24 7.4 3.4 76 1017.2 22.1 N 22.1 0.0 0.0
01:25 7.4 3.4 76 1017.3 13.6 W 22.1 0.0 0.0
01:26 7.4 3.4 76 1017.1 15.2 S 22.1 0.0 0.0
01:27 7.4 3.4 76 1017.2 14.5 SW 22.1 0.0 0.0
01:28 7.4 3.4 76 1017.1 13.6 W 22.1 0.0 0.0
01:29 7.4 3.4 76 1017.2 13.6 W 22.1 0.0 0.0
01:30 7.4 3.6 77 1017.4 17.4 NW 22.1 0.0 0.0
01:31 7.4 3.4 76 1017.4 19.0 SW 22.1 0.0 0.0
01:32 7.4 3.6 77 1017.2 13.6 SW 22.1 0.0 0.0
01:33 7.4 3.6 77 1017.2 15.9 W 22.1 0.0 0.0
01:34 7.4 3.6 77 1017.2 15.9 W 22.1 0.0 0.0
01:35 7.4 3.6 77 1017.1 16.8 NW 19.0 0.0 0.0
01:36 7.3 3.5 77 1017.1 13.6 W 19.0 0.0 0.0
01:37 7.4 3.6 77 1017.2 11.4 NW 19.0 0.0 0.0
01:38 7.4 3.6 77 1017.3 14.5 W 19.0 0.0 0.0
01:39 7.4 3.6 77 1017.2 19.0 NW 19.0 0.0 0.0
01:40 7.4 3.6 77 1017.2 15.9 NW 19.0 0.0 0.0
01:41 7.4 3.6 77 1017.3 14.5 E 19.0 0.0 0.0
01:42 7.4 3.6 77 1017.2 13.6 SW 19.0 0.0 0.0
01:43 7.4 3.6 77 1017.3 12.1 NW 19.0 0.0 0.0
01:44 7.4 3.6 77 1017.3 15.2 W 19.0 0.0 0.0
01:45 7.4 3.6 77 1017.1 15.2 SW 19.0 0.0 0.0
01:46 7.4 3.6 77 1017.3 13.6 SW 19.0 0.0 0.0
01:47 7.4 3.6 77 1017.4 10.7 N 19.0 0.0 0.0
01:48 7.3 3.5 77 1017.3 18.3 SW 19.0 0.0 0.0
01:49 7.4 3.6 77 1017.3 13.0 N 18.3 0.0 0.0
01:50 7.3 3.5 77 1017.4 13.0 W 18.3 0.0 0.0
01:51 7.3 3.5 77 1017.4 12.1 NW 18.3 0.0 0.0
01:52 7.3 3.5 77 1017.4 18.3 NW 18.3 0.0 0.0
01:53 7.2 3.4 77 1017.5 21.3 NW 21.3 0.0 0.0
01:54 7.3 3.5 77 1017.4 9.8 SW 21.3 0.0 0.0
01:55 7.3 3.5 77 1017.4 19.0 W 21.3 0.0 0.0
01:56 7.3 3.7 78 1017.6 11.4 SW 21.3 0.0 0.0
01:57 7.3 3.7 78 1017.4 19.0 S 21.3 0.0 0.0
01:58 7.3 3.7 78 1017.5 15.9 NNW 21.3 0.0 0.0
01:59 7.3 3.7 78 1017.6 15.2 NW 21.3 0.0 0.0
02:00 7.3 3.7 78 1017.5 15.9 W 21.3 0.0 0.0
02:01 7.3 3.7 78 1017.4 13.0 SW 21.3 0.0 0.0
02:02 7.3 3.7 78 1017.7 12.1 NW 21.3 0.0 0.0
02:03 7.3 3.7 78 1017.5 13.6 NW 21.3 0.0 0.0
02:04 7.4 3.8 78 1017.7 15.9 SW 19.0 0.0 0.0
02:05 7.4 3.8 78 1017.7 15.9 NW 19.0 0.0 0.0
02:06 7.4 3.8 78 1017.8 15.9 NW 19.0 0.0 0.0
02:07 7.4 3.8 78 1017.8 15.9 NW 17.4 0.0 0.0
02:08 7.4 3.8 78 1017.8 18.3 SW 18.3 0.0 0.0
02:09 7.4 3.8 78 1017.6 18.3 SW 18.3 0.0 0.0
02:10 7.4 3.8 78 1017.7 18.3 NW 18.3 0.0 0.0
02:11 7.4 4.0 79 1017.6 15.9 SW 18.3 0.0 0.0
02:12 7.4 3.8 78 1017.7 13.6 NW 18.3 0.0 0.0
02:13 7.4 3.8 78 1017.6 13.6 NW 18.3 0.0 0.0
02:14 7.4 3.8 78 1017.6 19.0 SW 19.0 0.0 0.0
02:15 7.4 3.8 78 1017.8 12.1 WNW 19.0 0.0 0.0
02:16 7.4 4.0 79 1017.7 11.4 WSW 19.0 0.0 0.0
02:17 7.4 4.0 79 1017.6 11.4 WSW 19.0 0.0 0.0
02:18 7.5 4.1 79 1017.7 12.1 W 19.0 0.0 0.0
02:19 7.5 4.1 79 1017.7 11.4 W 19.0 0.0 0.0
02:20 7.5 4.1 79 1017.8 13.0 W 19.0 0.0 0.0
02:21 7.5 4.1 79 1017.7 13.0 W 19.0 0.0 0.0
02:22 7.4 4.0 79 1018.0 13.0 WSW 19.0 0.0 0.0
02:23 7.5 4.1 79 1017.8 13.0 NW 19.0 0.0 0.0
02:24 7.4 4.0 79 1017.7 15.2 SW 19.0 0.0 0.0
02:25 7.5 4.1 79 1017.9 15.9 SW 17.4 0.0 0.0
02:26 7.5 4.1 79 1017.9 15.9 WSW 17.4 0.0 0.0
02:27 7.5 4.1 79 1017.9 19.7 NW 19.7 0.0 0.0
02:28 7.5 4.1 79 1017.8 14.5 WNW 19.7 0.0 0.0
02:29 7.5 4.1 79 1017.9 14.5 WNW 19.7 0.0 0.0
02:30 7.5 4.1 79 1018.1 14.5 WNW 19.7 0.0 0.0
02:31 7.5 4.1 79 1017.7 14.5 WNW 19.7 0.0 0.0
02:32 7.5 4.1 79 1017.9 14.5 WNW 19.7 0.0 0.0
02:33 7.5 4.1 79 1018.0 14.5 WNW 19.7 0.0 0.0
02:34 7.6 4.2 79 1018.1 15.2 W 19.7 0.0 0.0
02:35 7.5 4.1 79 1018.2 16.8 W 19.7 0.0 0.0
02:36 7.6 4.2 79 1018.0 12.1 SW 19.7 0.0 0.0
02:37 7.6 4.2 79 1018.2 11.4 WNW 19.7 0.0 0.0
02:38 7.6 4.2 79 1018.1 16.8 WNW 16.8 0.0 0.0
02:39 7.6 4.2 79 1018.1 16.8 WNW 16.8 0.0 0.0
02:40 7.6 4.2 79 1018.0 16.8 WNW 16.8 0.0 0.0
02:41 7.6 4.2 79 1018.0 9.8 WSW 16.8 0.0 0.0
02:42 7.6 4.2 79 1018.1 10.7 NW 16.8 0.0 0.0
02:43 7.6 4.2 79 1018.1 10.7 W 16.8 0.0 0.0
02:45 7.6 4.2 79 1018.2 15.2 SW 16.8 0.0 0.0
02:46 7.6 4.2 79 1018.2 15.2 SW 16.8 0.0 0.0
02:47 7.6 4.2 79 1018.1 12.1 S 16.8 0.0 0.0
02:48 7.6 4.4 80 1018.4 18.3 S 18.3 0.0 0.0
02:49 7.6 4.4 80 1018.2 16.8 NW 18.3 0.0 0.0
02:50 7.6 4.4 80 1018.4 16.8 NW 18.3 0.0 0.0
02:51 7.6 4.4 80 1018.4 15.9 W 18.3 0.0 0.0
02:52 7.6 4.4 80 1018.3 8.3 W 18.3 0.0 0.0
02:53 7.6 4.4 80 1018.3 8.3 W 18.3 0.0 0.0
02:54 7.7 4.5 80 1018.2 8.3 SW 18.3 0.0 0.0
02:55 7.6 4.4 80 1018.3 9.2 W 18.3 0.0 0.0
02:56 7.6 4.4 80 1018.4 16.8 WNW 18.3 0.0 0.0
02:57 7.6 4.4 80 1018.4 13.6 SW 18.3 0.0 0.0
02:58 7.6 4.4 80 1018.4 13.6 SW 18.3 0.0 0.0
02:59 7.6 4.4 80 1018.3 18.3 SW 18.3 0.0 0.0
03:00 7.6 4.4 80 1018.5 10.7 W 18.3 0.0 0.0
03:01 7.6 4.4 80 1018.5 15.2 NW 18.3 0.0 0.0
03:02 7.6 4.4 80 1018.5 12.1 SW 18.3 0.0 0.0
03:03 7.6 4.4 80 1018.6 14.5 S 18.3 0.0 0.0
03:04 7.6 4.4 80 1018.7 13.0 SW 18.3 0.0 0.0
03:06 7.7 4.5 80 1018.7 14.5 NW 18.3 0.0 0.0
03:07 7.7 4.5 80 1018.7 11.4 NW 18.3 0.0 0.0
03:08 7.7 4.5 80 1018.7 14.5 WSW 18.3 0.0 0.0
03:09 7.7 4.5 80 1018.6 16.8 NW 16.8 0.0 0.0
03:10 7.7 4.5 80 1018.7 13.0 NW 16.8 0.0 0.0
03:11 7.7 4.5 80 1018.7 14.5 NW 16.8 0.0 0.0
03:12 7.7 4.5 80 1018.9 10.7 SW 16.8 0.0 0.0
03:13 7.7 4.5 80 1018.9 6.0 NE 16.8 0.0 0.0
03:14 7.7 4.5 80 1018.9 6.0 W 16.8 0.0 0.0
03:15 7.7 4.5 80 1018.8 13.0 W 16.8 0.0 0.0
03:16 7.7 4.6 81 1018.8 15.2 SW 16.8 0.0 0.0
03:17 7.7 4.6 81 1018.8 15.2 SW 16.8 0.0 0.0
03:18 7.7 4.5 80 1018.8 18.3 NW 18.3 0.0 0.0
03:19 7.7 4.6 81 1019.0 13.0 W 18.3 0.0 0.0
03:20 7.7 4.6 81 1018.9 13.6 W 18.3 0.0 0.0
03:21 7.7 4.6 81 1019.0 13.0 NW 18.3 0.0 0.0
03:22 7.8 4.7 81 1018.9 11.4 WSW 18.3 0.0 0.0
03:23 7.8 4.7 81 1019.0 12.1 W 18.3 0.0 0.0
03:24 7.8 4.7 81 1019.1 9.8 S 18.3 0.0 0.0
03:25 7.8 4.7 81 1019.1 19.7 WSW 19.7 0.0 0.0
03:26 7.8 4.7 81 1019.0 18.3 SW 19.7 0.0 0.0
03:27 7.8 4.7 81 1019.0 13.6 SW 19.7 0.0 0.0
03:28 7.8 4.7 81 1019.0 15.2 SW 19.7 0.0 0.0
03:29 7.8 4.7 81 1019.1 19.7 SW 19.7 0.0 0.0
03:30 7.8 4.7 81 1019.0 13.6 W 19.7 0.0 0.0
03:31 7.8 4.7 81 1019.0 15.9 E 19.7 0.0 0.0
03:32 7.8 4.7 81 1019.0 13.0 NW 19.7 0.0 0.0
03:33 7.8 4.7 81 1018.9 15.2 NNW 19.7 0.0 0.0
03:34 7.8 4.7 81 1019.0 15.9 SW 19.7 0.0 0.0
03:35 7.8 4.7 81 1019.1 15.2 SW 19.7 0.0 0.0
03:36 7.8 4.7 81 1019.1 19.7 NW 19.7 0.0 0.0
03:37 7.8 4.7 81 1019.0 15.2 SW 19.7 0.0 0.0
03:38 7.8 4.7 81 1019.0 15.2 SW 19.7 0.0 0.0
03:39 7.8 4.7 81 1019.2 10.7 W 19.7 0.0 0.0
03:40 7.8 4.7 81 1019.2 10.7 SW 19.7 0.0 0.0
03:41 7.8 4.7 81 1019.3 9.2 W 19.7 0.0 0.0
03:42 7.7 4.6 81 1019.2 16.8 SE 19.7 0.0 0.0
03:43 7.8 4.7 81 1019.1 19.7 W 19.7 0.0 0.0
03:44 7.8 4.7 81 1019.3 9.8 NW 19.7 0.0 0.0
03:45 7.8 4.7 81 1019.4 17.4 SE 19.7 0.0 0.0
03:47 7.8 4.7 81 1019.4 10.7 NW 19.7 0.0 0.0
03:49 7.8 4.7 81 1019.4 16.8 NW 19.7 0.0 0.0
03:50 7.8 4.7 81 1019.4 13.0 SW 19.7 0.0 0.0
03:51 7.8 4.7 81 1019.3 17.4 WSW 19.7 0.0 0.0
03:52 7.8 4.7 81 1019.2 10.7 NW 19.7 0.0 0.0
03:53 7.8 4.7 81 1019.5 8.3 W 18.3 0.0 0.0
03:54 7.8 4.7 81 1019.3 10.7 SW 18.3 0.0 0.0
03:55 7.8 4.7 81 1019.4 9.8 NW 18.3 0.0 0.0
03:56 7.8 4.7 81 1019.4 10.7 WSW 18.3 0.0 0.0
03:57 7.8 4.7 81 1019.4 7.6 WNW 18.3 0.0 0.0
03:58 7.8 4.7 81 1019.5 9.2 NW 18.3 0.0 0.0
03:59 7.8 4.7 81 1019.4 15.2 NW 17.4 0.0 0.0
04:00 7.7 4.6 81 1019.5 12.1 NW 17.4 0.0 0.0
04:01 7.7 4.6 81 1019.4 11.4 SW 17.4 0.0 0.0
04:02 7.7 4.6 81 1019.4 9.2 SW 15.2 0.0 0.0
04:03 7.7 4.6 81 1019.5 13.6 NNW 15.2 0.0 0.0
04:04 7.7 4.6 81 1019.6 8.3 S 15.2 0.0 0.0
04:05 7.7 4.6 81 1019.6 13.6 W 15.2 0.0 0.0
04:06 7.7 4.6 81 1019.7 15.2 SW 15.2 0.0 0.0
04:07 7.7 4.6 81 1019.7 13.0 SW 15.2 0.0 0.0
04:09 7.7 4.6 81 1019.8 11.4 SW 15.2 0.0 0.0
04:10 7.7 4.6 81 1019.9 9.8 W 15.2 0.0 0.0
04:11 7.7 4.6 81 1020.1 7.6 NW 15.2 0.0 0.0
04:12 7.7 4.8 82 1019.9 10.7 W 15.2 0.0 0.0
04:13 7.7 4.8 82 1019.9 9.2 W 15.2 0.0 0.0
04:14 7.7 4.8 82 1020.0 9.2 W 15.2 0.0 0.0
04:15 7.7 4.8 82 1019.8 13.0 W 15.2 0.0 0.0
04:16 7.7 4.8 82 1020.0 7.6 SW 15.2 0.0 0.0
04:17 7.7 4.8 82 1020.0 7.6 SW 13.0 0.0 0.0
04:18 7.7 4.8 82 1019.9 10.7 SW 13.0 0.0 0.0
04:19 7.7 4.8 82 1019.9 6.9 W 13.0 0.0 0.0
04:20 7.7 4.8 82 1020.1 6.9 WNW 13.0 0.0 0.0
04:21 7.7 4.8 82 1020.0 10.7 SSW 13.0 0.0 0.0
04:22 7.9 5.0 82 1020.0 10.7 SW 13.0 0.0 0.0
04:23 7.7 4.8 82 1020.0 10.7 W 13.0 0.0 0.0
04:24 7.7 4.8 82 1020.1 10.7 W 13.0 0.0 0.0
04:25 7.7 4.8 82 1020.1 11.4 SW 13.0 0.0 0.0
04:26 7.7 4.8 82 1020.1 9.2 SW 12.1 0.0 0.0
04:28 7.7 4.8 82 1020.2 9.2 SW 11.4 0.0 0.0
04:29 7.7 4.8 82 1020.3 9.2 SW 11.4 0.0 0.0
04:30 7.7 4.8 82 1020.3 8.3 NW 11.4 0.0 0.0
04:31 7.7 4.8 82 1020.4 6.9 NW 11.4 0.0 0.0
04:32 7.6 4.7 82 1020.4 8.3 WSW 11.4 0.0 0.0
04:33 7.6 4.7 82 1020.3 8.3 WSW 11.4 0.0 0.0
04:34 7.6 4.7 82 1020.3 9.2 W 11.4 0.0 0.0
04:35 7.5 4.6 82 1020.4 15.2 SW 15.2 0.0 0.0
04:36 7.6 4.7 82 1020.3 10.7 NW 15.2 0.0 0.0
04:37 7.6 4.7 82 1020.3 6.9 W 15.2 0.0 0.0
04:38 7.6 4.7 82 1020.4 9.2 W 15.2 0.0 0.0
04:39 7.5 4.6 82 1020.4 12.1 NW 15.2 0.0 0.0
04:40 7.6 4.7 82 1020.4 10.7 NW 15.2 0.0 0.0
04:41 7.6 4.7 82 1020.5 6.9 NW 15.2 0.0 0.0
04:42 7.6 4.7 82 1020.4 7.6 W 15.2 0.0 0.0
04:43 7.6 4.7 82 1020.5 11.4 W 15.2 0.0 0.0
04:44 7.6 4.9 83 1020.6 13.0 W 15.2 0.0 0.0
04:45 7.6 4.7 82 1020.6 7.6 NW 15.2 0.0 0.0
04:46 7.6 4.9 83 1020.6 10.7 NW 13.0 0.0 0.0
04:48 7.6 4.9 83 1020.5 7.6 NW 13.0 0.0 0.0
04:49 7.6 4.9 83 1020.6 11.4 NW 13.0 0.0 0.0
04:50 7.6 4.9 83 1020.6 14.5 WSW 14.5 0.0 0.0
04:51 7.5 4.8 83 1020.6 6.9 SW 14.5 0.0 0.0
04:52 7.6 4.9 83 1020.6 10.7 W 14.5 0.0 0.0
04:53 7.6 4.9 83 1020.7 6.9 N 14.5 0.0 0.0
04:54 7.6 4.9 83 1020.7 10.7 SW 14.5 0.0 0.0
04:55 7.6 4.9 83 1020.7 8.3 W 14.5 0.0 0.0
04:56 7.6 4.9 83 1020.6 12.1 W 14.5 0.0 0.0
04:57 7.6 4.9 83 1020.7 12.1 SW 14.5 0.0 0.0
04:58 7.6 4.9 83 1020.6 7.6 NW 14.5 0.0 0.0
04:59 7.6 4.9 83 1020.7 8.3 W 14.5 0.0 0.0
05:00 7.6 4.9 83 1020.9 8.3 W 14.5 0.0 0.0
05:01 7.6 4.9 83 1020.9 11.4 NW 12.1 0.0 0.0
05:02 7.6 4.9 83 1020.9 11.4 NW 12.1 0.0 0.0
05:03 7.6 4.9 83 1020.9 8.3 NW 12.1 0.0 0.0
05:04 7.7 5.0 83 1020.9 9.2 NW 12.1 0.0 0.0
05:05 7.7 5.0 83 1020.9 9.2 NW 12.1 0.0 0.0
05:06 7.7 5.0 83 1020.8 6.9 S 12.1 0.0 0.0
05:07 7.7 5.0 83 1020.9 12.1 W 12.1 0.0 0.0
05:08 7.7 5.0 83 1020.9 11.4 NW 12.1 0.0 0.0
05:09 7.7 5.0 83 1020.9 14.5 NW 14.5 0.0 0.0
05:10 7.7 5.0 83 1021.0 11.4 SE 14.5 0.0 0.0
05:11 7.7 5.0 83 1021.1 8.3 W 14.5 0.0 0.0
05:12 7.7 5.0 83 1021.0 9.8 NW 14.5 0.0 0.0
05:13 7.7 5.0 83 1021.1 6.9 N 14.5 0.0 0.0
05:14 7.7 5.0 83 1021.1 9.2 S 14.5 0.0 0.0
05:15 7.7 5.0 83 1021.0 11.4 W 14.5 0.0 0.0
05:17 7.7 5.0 83 1021.2 9.2 SW 14.5 0.0 0.0
05:18 7.7 5.0 83 1021.4 10.7 WSW 14.5 0.0 0.0
05:19 7.7 5.0 83 1021.2 7.6 W 13.0 0.0 0.0
05:20 7.7 5.0 83 1021.3 9.2 W 11.4 0.0 0.0
05:21 7.7 5.0 83 1021.4 12.1 W 12.1 0.0 0.0
05:22 7.7 5.0 83 1021.2 9.2 S 12.1 0.0 0.0
05:23 7.7 5.0 83 1021.4 12.1 N 12.1 0.0 0.0
05:24 7.7 5.2 84 1021.5 8.3 W 12.1 0.0 0.0
05:25 7.7 5.2 84 1021.4 7.6 SW 12.1 0.0 0.0
05:26 7.7 5.2 84 1021.3 10.7 W 12.1 0.0 0.0
05:27 7.7 5.2 84 1021.5 15.9 SW 15.9 0.0 0.0
05:28 7.8 5.3 84 1021.4 9.2 W 15.9 0.0 0.0
05:29 7.7 5.2 84 1021.4 13.6 W 15.9 0.0 0.0
05:30 7.8 5.3 84 1021.3 11.4 NW 15.9 0.0 0.0
05:31 7.8 5.3 84 1021.5 11.4 E 16.8 0.0 0.0
05:32 7.8 5.3 84 1021.4 13.6 SE 16.8 0.0 0.0
05:33 7.8 5.3 84 1021.6 9.8 NW 16.8 0.0 0.0
05:34 7.8 5.3 84 1021.5 8.3 WNW 16.8 0.0 0.0
05:36 7.8 5.3 84 1021.6 9.8 WSW 16.8 0.0 0.0
05:37 7.8 5.3 84 1021.6 9.8 W 16.8 0.0 0.0
05:38 7.8 5.3 84 1021.6 7.6 NW 16.8 0.0 0.0
05:39 7.7 5.2 84 1021.6 8.3 SW 16.8 0.0 0.0
05:40 7.7 5.2 84 1021.5 8.3 SW 13.6 0.0 0.0
05:41 7.7 5.2 84 1021.7 7.6 NW 13.6 0.0 0.0
05:42 7.7 5.2 84 1021.5 9.8 WSW 13.0 0.0 0.0
05:43 7.7 5.2 84 1021.6 7.6 WSW 13.0 0.0 0.0
05:44 7.7 5.2 84 1021.6 7.6 SW 9.8 0.0 0.0
05:45 7.7 5.2 84 1021.6 8.3 W 9.8 0.0 0.0
05:46 7.7 5.2 84 1021.6 9.8 N 9.8 0.0 0.0
05:47 7.7 5.2 84 1021.5 7.6 NW 9.8 0.0 0.0
05:48 7.7 5.2 84 1021.5 7.6 NW 9.8 0.0 0.0
05:49 7.7 5.2 84 1021.4 10.7 W 10.7 0.0 0.0
05:50 7.7 5.2 84 1021.6 12.1 SW 12.1 0.0 0.0
05:51 7.6 5.1 84 1021.4 11.4 SW 12.1 0.0 0.0
05:52 7.7 5.2 84 1021.6 9.8 W 12.1 0.0 0.0
05:53 7.6 5.1 84 1021.5 13.6 W 13.6 0.0 0.0
05:54 7.7 5.2 84 1021.6 16.8 NW 16.8 0.0 0.0
05:56 7.7 5.2 84 1021.6 13.6 NE 16.8 0.0 0.0
05:57 7.7 5.2 84 1021.6 9.8 NW 16.8 0.0 0.0
05:58 7.7 5.2 84 1021.7 9.2 NW 16.8 0.0 0.0
05:59 7.7 5.2 84 1021.9 9.2 N 16.8 0.0 0.0
06:00 7.7 5.2 84 1021.8 9.2 N 16.8 0.0 0.0
06:01 7.7 5.2 84 1021.9 9.2 NW 16.8 0.0 0.0
06:02 7.7 5.2 84 1021.9 9.2 NW 16.8 0.0 0.0
06:03 7.7 5.2 84 1021.9 9.2 NW 16.8 0.0 0.0
06:04 7.7 5.2 84 1022.1 9.2 NW 16.8 0.0 0.0
06:05 7.7 5.2 84 1021.9 9.2 NW 13.6 0.0 0.0
06:06 7.7 5.2 84 1022.0 9.2 NW 13.6 0.0 0.0
06:07 7.7 5.2 84 1022.0 8.3 NW 9.8 0.0 0.0
06:08 7.6 5.2 85 1022.2 9.2 WNW 9.2 0.0 0.0
06:09 7.7 5.3 85 1022.3 7.6 W 9.2 0.0 0.0
06:10 7.6 5.2 85 1022.2 6.9 W 9.2 0.0 0.0
06:11 7.6 5.2 85 1022.1 10.7 WSW 10.7 0.0 0.0
06:12 7.7 5.3 85 1022.2 11.4 NW 11.4 0.0 0.0
06:13 7.7 5.3 85 1022.2 10.7 S 11.4 0.0 0.0
06:15 7.7 5.3 85 1022.1 10.7 NW 12.1 0.0 0.0
06:16 7.7 5.3 85 1022.2 11.4 SSE 12.1 0.0 0.0
06:17 7.7 5.3 85 1022.3 13.6 N 13.6 0.0 0.0
06:18 7.7 5.3 85 1022.2 9.8 W 13.6 0.0 0.0
06:19 7.7 5.3 85 1022.3 7.6 W 13.6 0.0 0.0
06:20 7.7 5.3 85 1022.2 9.8 NW 13.6 0.0 0.0
06:21 7.7 5.3 85 1022.3 10.7 NW 13.6 0.0 0.0
06:22 7.8 5.4 85 1022.4 9.8 W 13.6 0.0 0.0
06:23 7.8 5.4 85 1022.3 9.8 W 13.6 0.0 0.0
06:24 7.8 5.4 85 1022.4 6.9 SW 13.6 0.0 0.0
06:25 7.8 5.4 85 1022.3 9.2 NW 13.6 0.0 0.0
06:26 7.8 5.4 85 1022.6 11.4 W 13.6 0.0 0.0
06:27 7.8 5.4 85 1022.4 8.3 SW 13.6 0.0 0.0
06:28 7.8 5.4 85 1022.6 8.3 SW 13.0 0.0 0.0
06:29 7.8 5.4 85 1022.5 9.2 N 13.0 0.0 0.0
06:30 7.8 5.4 85 1022.6 8.3 SW 11.4 0.0 0.0
06:31 7.8 5.4 85 1022.6 9.2 SW 11.4 0.0 0.0
06:32 7.8 5.4 85 1022.8 9.8 NW 11.4 0.0 0.0
06:33 7.8 5.4 85 1022.7 12.1 NW 12.1 0.0 0.0
06:35 7.8 5.4 85 1022.6 10.7 NNE 12.1 0.0 0.0
06:36 7.8 5.4 85 1022.7 12.1 NNE 12.1 0.0 0.0
06:37 7.8 5.4 85 1022.7 10.7 S 12.1 0.0 0.0
06:38 7.8 5.4 85 1022.6 7.6 NW 12.1 0.0 0.0
06:39 7.8 5.4 85 1022.7 11.4 N 15.2 0.0 0.0
06:40 7.7 5.3 85 1022.7 6.9 N 15.2 0.0 0.0
06:41 7.8 5.4 85 1022.7 9.8 NW 15.2 0.0 0.0
06:42 7.8 5.4 85 1022.8 10.7 W 15.2 0.0 0.0
06:43 7.8 5.6 86 1022.8 11.4 NW 15.2 0.0 0.0
06:44 7.8 5.6 86 1022.8 10.7 NW 15.2 0.0 0.0
06:45 7.7 5.5 86 1022.7 9.8 WNW 15.2 0.0 0.0
06:46 7.9 5.5 85 1022.7 9.2 S 15.2 0.0 0.0
06:47 7.8 5.6 86 1022.6 13.0 WSW 15.2 0.0 0.0
06:48 7.9 5.5 85 1022.7 10.7 NW 15.2 0.0 0.0
06:49 7.8 5.6 86 1022.8 13.0 N 15.2 0.0 0.0
06:50 7.8 5.6 86 1022.9 6.9 W 13.0 0.0 0.0
06:51 7.8 5.6 86 1022.8 10.7 W 13.0 0.0 0.0
06:52 7.8 5.6 86 1022.9 9.8 SW 13.0 0.0 0.0
06:53 7.8 5.6 86 1023.0 8.3 SW 13.0 0.0 0.0
06:55 7.9 5.7 86 1023.0 10.7 NW 13.0 0.0 0.0
06:56 7.9 5.7 86 1023.0 7.6 W 13.0 0.0 0.0
06:57 7.9 5.7 86 1023.0 6.9 W 13.0 0.0 0.0
06:58 7.9 5.7 86 1023.0 11.4 SW 13.0 0.0 0.0
06:59 7.8 5.6 86 1023.1 13.0 S 14.5 0.0 0.0
07:00 7.9 5.7 86 1023.0 13.0 WSW 14.5 0.0 0.0
07:01 7.9 5.7 86 1023.0 9.8 NW 14.5 0.0 0.0
07:02 7.9 5.7 86 1023.1 9.8 NW 14.5 0.0 0.0
07:03 7.9 5.7 86 1023.1 11.4 W 14.5 0.0 0.0
07:04 7.9 5.7 86 1023.1 12.1 W 14.5 0.0 0.0
07:05 7.9 5.7 86 1023.0 10.7 NW 14.5 0.0 0.0
07:06 7.9 5.7 86 1023.3 11.4 WSW 14.5 0.0 0.0
07:07 7.9 5.7 86 1023.3 11.4 SE 14.5 0.0 0.0
07:08 7.9 5.7 86 1023.2 13.6 NW 14.5 0.0 0.0
07:09 7.9 5.7 86 1023.2 14.5 W 14.5 0.0 0.0
07:10 7.9 5.7 86 1023.3 9.8 W 14.5 0.0 0.0
07:11 7.9 5.7 86 1023.4 9.2 SW 14.5 0.0 0.0
07:12 8.0 5.8 86 1023.5 7.6 NW 14.5 0.0 0.0
07:13 8.0 5.8 86 1023.4 7.6 NW 14.5 0.0 0.0
07:14 7.9 5.7 86 1023.5 9.2 NW 14.5 0.0 0.0
07:15 7.9 5.7 86 1023.6 9.8 W 14.5 0.0 0.0
07:17 7.9 5.7 86 1023.4 13.0 NW 14.5 0.0 0.0
07:18 7.9 5.7 86 1023.5 12.1 NW 14.5 0.0 0.0
07:19 8.0 5.8 86 1023.6 13.0 NW 13.0 0.0 0.0
07:20 8.0 5.8 86 1023.5 8.3 SW 13.0 0.0 0.0
07:21 8.0 5.8 86 1023.5 12.1 N 13.0 0.0 0.0
07:22 8.0 5.8 86 1023.6 8.3 N 13.0 0.0 0.0
07:23 8.0 5.8 86 1023.6 9.2 NW 13.0 0.0 0.0
07:24 8.0 5.8 86 1023.6 11.4 NW 13.0 0.0 0.0
07:25 8.0 5.8 86 1023.6 9.2 W 13.0 0.0 0.0
07:26 8.0 5.8 86 1023.6 9.8 W 13.0 0.0 0.0
07:27 8.0 5.8 86 1023.5 11.4 W 13.0 0.0 0.0
07:28 8.0 5.8 86 1023.5 7.6 NW 13.0 0.0 0.0
07:29 8.0 5.8 86 1023.4 9.2 NW 13.0 0.0 0.0
07:30 8.0 6.0 87 1023.4 14.5 W 14.5 0.0 0.0
07:32 8.0 6.0 87 1023.6 12.1 WNW 14.5 0.0 0.0
07:33 8.1 6.1 87 1023.7 13.6 NW 14.5 0.0 0.0
07:34 8.1 6.1 87 1023.6 12.1 NW 14.5 0.0 0.0
07:35 8.1 6.1 87 1023.6 11.4 NE 14.5 0.0 0.0
07:36 8.1 6.1 87 1023.8 13.6 NW 14.5 0.0 0.0
07:37 8.1 6.1 87 1023.8 10.7 W 14.5 0.0 0.0
07:38 8.3 6.3 87 1023.9 11.4 NW 14.5 0.0 0.0
07:39 8.1 6.1 87 1023.7 11.4 W 14.5 0.0 0.0
07:40 8.1 6.1 87 1023.9 9.8 WNW 14.5 0.0 0.0
07:41 8.1 6.1 87 1023.9 11.4 WNW 13.6 0.0 0.0
07:42 8.1 6.1 87 1023.9 10.7 W 13.6 0.0 0.0
07:43 8.1 6.1 87 1023.9 9.8 NW 13.6 0.0 0.0
07:44 8.1 6.1 87 1024.0 10.7 W 13.6 0.0 0.0
07:45 8.1 6.1 87 1024.0 9.2 NW 13.6 0.0 0.0
07:46 8.1 6.1 87 1024.0 9.2 NW 13.6 0.0 0.0
07:48 8.1 6.1 87 1024.1 9.2 N 11.4 0.0 0.0
07:49 8.1 6.1 87 1024.1 8.3 W 11.4 0.0 0.0
07:50 8.1 6.1 87 1024.1 10.7 NW 11.4 0.0 0.0
07:51 8.1 6.1 87 1024.1 11.4 NW 11.4 0.0 0.0
07:52 8.1 6.1 87 1024.1 14.5 NW 14.5 0.0 0.0
07:53 8.1 6.1 87 1024.2 9.8 E 14.5 0.0 0.0
07:54 8.1 6.1 87 1024.2 10.7 NW 14.5 0.0 0.0
07:55 8.2 6.2 87 1024.2 7.6 NW 14.5 0.0 0.0
07:56 8.2 6.2 87 1024.3 9.2 W 14.5 0.0 0.0
07:57 8.2 6.2 87 1024.2 7.6 NW 14.5 0.0 0.0
07:58 8.2 6.2 87 1024.3 8.3 NW 14.5 0.0 0.0
07:59 8.2 6.2 87 1024.3 14.5 N 14.5 0.0 0.0
08:00 8.2 6.2 87 1024.2 13.0 W 14.5 0.0 0.0
08:01 8.2 6.2 87 1024.2 8.3 W 14.5 0.0 0.0
08:03 8.2 6.2 87 1024.3 9.8 W 14.5 0.0 0.0
08:04 8.2 6.2 87 1024.3 9.8 W 14.5 0.0 0.0
08:05 8.2 6.2 87 1024.5 6.9 NE 14.5 0.0 0.0
08:06 8.2 6.2 87 1024.4 12.1 SW 14.5 0.0 0.0
08:07 8.2 6.2 87 1024.5 13.0 NW 14.5 0.0 0.0
08:08 8.2 6.2 87 1024.5 9.8 NW 14.5 0.0 0.0
08:09 8.2 6.2 87 1024.4 13.0 W 14.5 0.0 0.0
08:10 8.2 6.3 88 1024.4 10.7 W 13.0 0.0 0.0
08:11 8.2 6.3 88 1024.6 9.8 NE 13.6 0.0 0.0
08:12 8.2 6.3 88 1024.6 13.0 SW 13.6 0.0 0.0
08:13 8.2 6.2 87 1024.6 13.6 NW 13.6 0.0 0.0
08:14 8.2 6.3 88 1024.6 9.8 N 13.6 0.0 0.0
08:15 8.2 6.3 88 1024.7 12.1 W 13.6 0.0 0.0
08:16 8.2 6.3 88 1024.8 8.3 NW 13.6 0.0 0.0
08:18 8.2 6.3 88 1024.9 12.1 NW 13.6 0.0 0.0
08:19 8.2 6.3 88 1024.9 10.7 N 13.6 0.0 0.0
08:20 8.2 6.3 88 1024.9 12.1 N 13.6 0.0 0.0
08:21 8.2 6.3 88 1024.9 9.8 NW 13.6 0.0 0.0
08:22 8.1 6.2 88 1024.9 12.1 NW 13.6 0.0 0.0
08:23 8.1 6.2 88 1024.8 9.2 N 13.6 0.0 0.0
08:24 8.1 6.2 88 1024.7 12.1 N 13.6 0.0 0.0
08:25 8.0 6.1 88 1024.9 10.7 N 12.1 0.0 0.0
08:26 8.0 6.1 88 1024.9 9.8 NW 12.1 0.0 0.0
08:27 8.0 6.1 88 1024.8 6.9 WSW 12.1 0.0 0.0
08:28 7.9 6.0 88 1024.9 8.3 SW 12.1 0.0 0.0
08:29 7.9 6.0 88 1024.8 10.7 NW 12.1 0.0 0.0
08:30 7.8 5.9 88 1024.7 8.3 NW 12.1 0.0 0.0
08:31 7.8 5.9 88 1024.8 6.9 NW 12.1 0.0 0.0
08:32 7.8 5.9 88 1024.8 7.6 NW 12.1 0.0 0.0
08:34 7.7 5.8 88 1024.8 5.4 NE 10.7 0.0 0.0
08:35 7.7 5.8 88 1024.8 6.0 NW 10.7 0.0 0.0
08:36 7.7 5.8 88 1024.7 8.3 NW 10.7 0.0 0.0
08:37 7.6 5.7 88 1024.8 8.3 N 10.7 0.0 0.0
08:38 7.7 5.8 88 1024.9 9.8 W 10.7 0.0 0.0
08:39 7.7 5.8 88 1024.9 9.2 SW 9.8 0.0 0.0
08:40 7.7 5.8 88 1024.9 11.4 WSW 11.4 0.0 0.0
08:41 7.6 5.7 88 1025.1 6.9 NW 11.4 0.0 0.0
08:42 7.7 5.8 88 1025.0 12.1 NW 12.1 0.0 0.0
08:43 7.6 5.7 88 1025.1 6.0 W 12.1 0.0 0.0
08:44 7.6 5.7 88 1025.0 6.0 W 12.1 0.0 0.0
08:45 7.6 5.7 88 1025.0 8.3 N 12.1 0.0 0.0
08:46 7.6 5.7 88 1024.8 9.2 NW 12.1 0.0 0.0
08:47 7.6 5.9 89 1024.9 8.3 NW 12.1 0.0 0.0
08:49 7.5 5.8 89 1025.0 9.8 N 12.1 0.0 0.0
08:50 7.5 5.8 89 1024.9 8.3 NW 12.1 0.0 0.0
08:51 7.5 5.8 89 1025.0 6.9 S 12.1 0.0 0.0
08:52 7.5 5.8 89 1025.0 6.9 SW 9.8 0.0 0.0
08:53 7.5 5.8 89 1024.9 9.8 S 9.8 0.0 0.0
08:54 7.5 5.8 89 1024.9 9.8 S 9.8 0.0 0.0
08:55 7.4 5.7 89 1024.9 9.2 WSW 9.8 0.0 0.0
08:56 7.5 5.8 89 1025.0 13.6 NW 13.6 0.0 0.0
08:57 7.5 5.8 89 1024.7 12.1 NW 13.6 0.0 0.0
08:58 7.5 5.8 89 1024.8 11.4 NW 13.6 0.0 0.0
08:59 7.5 5.8 89 1024.8 13.0 W 13.6 0.0 0.0
09:00 7.5 5.8 89 1024.9 12.1 NW 13.6 0.0 0.0
09:01 7.5 5.8 89 1024.9 13.6 NW 13.6 0.0 0.0
09:02 7.4 5.7 89 1024.9 15.2 WSW 15.2 0.0 0.0
09:03 7.5 5.8 89 1024.8 10.7 W 15.2 0.0 0.1
09:04 7.5 5.8 89 1024.8 13.0 WSW 15.2 0.8 0.1
09:06 7.5 5.8 89 1024.8 10.7 WNW 15.2 0.8 0.1
09:07 7.6 5.9 89 1024.9 10.7 W 15.2 0.8 0.1
09:08 7.5 6.0 90 1024.9 4.5 W 15.2 0.8 0.1
09:09 7.6 6.1 90 1024.9 8.3 W 15.2 0.0 0.1
09:11 7.7 6.2 90 1025.0 11.4 W 15.2 0.0 0.1
09:12 7.7 6.2 90 1025.2 9.2 W 13.0 0.0 0.1
09:13 7.7 6.2 90 1025.3 12.1 NW 13.0 0.0 0.1
09:14 7.7 6.2 90 1025.2 11.4 W 13.0 0.0 0.1
09:15 7.7 6.2 90 1025.2 8.3 NW 13.0 0.0 0.1
09:16 7.7 6.2 90 1025.3 10.7 WNW 13.0 0.0 0.1
09:17 7.7 6.2 90 1025.1 8.3 SE 13.0 0.0 0.1
09:18 7.8 6.3 90 1025.3 9.8 W 13.0 0.0 0.1
09:19 7.8 6.3 90 1025.3 10.7 W 13.0 0.0 0.1
09:20 7.8 6.3 90 1025.2 10.7 W 13.0 0.0 0.1
09:21 7.8 6.3 90 1025.2 11.4 NW 12.1 0.0 0.1
09:22 7.8 6.3 90 1025.3 8.3 W 12.1 0.0 0.1
09:23 7.8 6.3 90 1025.3 8.3 W 12.1 0.0 0.1
09:24 7.8 6.3 90 1025.2 8.3 SW 11.4 0.0 0.1
09:26 7.8 6.3 90 1025.4 11.4 NW 11.4 0.0 0.1
09:27 7.8 6.4 91 1025.2 9.2 NW 11.4 0.0 0.1
09:28 7.8 6.3 90 1025.3 8.3 N 11.4 0.0 0.1
09:29 7.8 6.4 91 1025.2 6.0 N 11.4 0.0 0.1
09:30 7.8 6.3 90 1025.3 9.2 NW 11.4 0.0 0.1
09:31 7.8 6.4 91 1025.2 6.9 NE 11.4 0.0 0.1
09:32 7.8 6.4 91 1025.3 8.3 NE 11.4 0.0 0.1
09:33 7.8 6.4 91 1025.2 9.2 N 11.4 0.0 0.1
09:34 7.9 6.5 91 1025.3 5.4 E 11.4 0.0 0.1
09:35 7.9 6.5 91 1025.4 9.8 WSW 11.4 0.0 0.1
09:36 7.9 6.5 91 1025.2 10.7 WNW 11.4 0.0 0.1
09:37 7.9 6.5 91 1025.4 11.4 NW 11.4 0.0 0.1
09:38 7.9 6.5 91 1025.4 9.2 N 11.4 0.0 0.1
09:39 7.9 6.5 91 1025.5 9.2 W 11.4 0.0 0.1
09:40 8.0 6.6 91 1025.5 10.7 W 11.4 0.0 0.1
09:42 8.0 6.6 91 1025.6 7.6 NW 11.4 0.0 0.1
09:43 8.0 6.6 91 1025.8 6.9 W 11.4 0.0 0.1
09:44 8.0 6.6 91 1025.6 12.1 SW 12.1 0.0 0.1
09:45 8.0 6.6 91 1025.7 7.6 NW 12.1 0.0 0.1
09:46 8.0 6.6 91 1025.7 7.6 NW 12.1 0.0 0.1
09:47 8.1 6.7 91 1025.7 3.8 NW 12.1 0.0 0.1
09:48 8.1 6.7 91 1025.6 8.3 NE 12.1 0.0 0.1
09:49 8.1 6.7 91 1025.5 8.3 NW 12.1 0.0 0.1
09:50 8.1 6.7 91 1025.7 9.8 NW 12.1 0.0 0.1
09:51 8.1 6.7 91 1025.6 8.3 NW 12.1 0.0 0.1
09:52 8.1 6.7 91 1025.8 9.2 NW 12.1 0.0 0.1
09:53 8.2 6.8 91 1025.8 7.6 NW 12.1 0.0 0.1
09:54 8.2 6.8 91 1025.8 4.5 SW 12.1 0.0 0.1
09:55 8.1 6.7 91 1025.8 3.8 NE 9.8 0.0 0.1
09:56 8.2 6.8 91 1025.9 5.4 NW 9.8 0.0 0.1
09:58 8.2 6.8 91 1025.9 3.1 N 9.8 0.0 0.1
09:59 8.3 6.9 91 1026.2 2.2 NE 9.8 0.0 0.1
10:00 8.3 6.9 91 1026.1 2.2 N 9.2 0.0 0.1
10:01 8.3 6.9 91 1026.1 7.6 N 9.2 0.0 0.1
10:02 8.3 6.9 91 1026.1 7.6 N 9.2 0.0 0.1
10:03 8.3 6.9 91 1026.1 7.6 N 9.2 0.0 0.1
10:04 8.3 6.9 91 1026.1 7.6 N 7.6 0.0 0.1
10:05 8.3 6.9 91 1026.2 7.6 N 7.6 0.0 0.1
10:06 8.3 6.9 91 1026.2 7.6 N 7.6 0.0 0.1
10:07 8.4 7.0 91 1026.4 6.0 NW 7.6 0.0 0.1
10:08 8.3 6.9 91 1026.4 8.3 NW 8.3 0.0 0.1
10:09 8.4 7.0 91 1026.5 3.8 N 8.3 0.0 0.1
10:10 8.4 7.0 91 1026.4 4.5 WNW 8.3 0.0 0.1
10:11 8.4 7.0 91 1026.5 6.9 NE 8.3 0.0 0.1
10:12 8.4 7.0 91 1026.5 8.3 NW 8.3 0.0 0.1
10:13 8.4 7.0 91 1026.5 9.2 W 9.2 0.0 0.1
10:14 8.4 7.0 91 1026.7 3.1 N 9.2 0.0 0.1
10:16 8.3 6.9 91 1026.5 5.4 N 9.2 0.0 0.1
10:17 8.4 7.0 91 1026.4 3.1 N 9.2 0.0 0.1
10:18 8.3 6.9 91 1026.4 6.0 W 9.2 0.0 0.1
10:19 8.4 7.0 91 1026.6 4.5 N 9.2 0.0 0.1
10:20 8.4 7.0 91 1026.6 4.5 NE 9.2 0.0 0.1
10:21 8.4 7.0 91 1026.5 3.8 N 9.2 0.0 0.1
10:22 8.5 7.1 91 1026.5 7.6 NW 9.2 0.0 0.1
10:23 8.6 7.2 91 1026.6 6.9 W 9.2 0.0 0.1
10:24 8.6 7.2 91 1026.4 6.0 W 8.3 0.0 0.1
10:25 8.6 7.2 91 1026.5 3.8 N 8.3 0.0 0.1
10:26 8.7 7.3 91 1026.6 5.4 N 7.6 0.0 0.1
10:27 8.8 7.4 91 1026.7 6.0 NW 7.6 0.0 0.1
10:28 8.9 7.5 91 1026.6 5.4 N 7.6 0.0 0.1
10:29 8.9 7.5 91 1026.6 6.9 NE 7.6 0.0 0.1
10:30 9.0 7.6 91 1026.6 7.6 NE 7.6 0.0 0.1
10:32 9.2 7.8 91 1026.7 4.5 E 7.6 0.8 0.1
10:33 9.2 7.8 91 1026.5 3.8 E 7.6 0.8 0.1
10:34 9.3 7.9 91 1026.5 4.5 N 7.6 0.8 0.1
10:35 9.4 8.0 91 1026.7 8.3 N 8.3 0.8 0.1
10:36 9.4 8.0 91 1026.7 8.3 N 8.3 0.0 0.1
10:37 9.5 8.1 91 1026.7 4.5 N 8.3 0.0 0.1
10:38 9.6 8.2 91 1026.7 5.4 NE 8.3 0.0 0.1
10:39 9.6 8.2 91 1026.7 5.4 NW 8.3 0.0 0.1
10:40 9.6 8.2 91 1026.8 5.4 N 8.3 0.0 0.1
10:41 9.7 8.3 91 1026.9 6.9 N 8.3 0.0 0.1
10:42 9.8 8.4 91 1026.8 8.3 N 8.3 0.0 0.1
10:43 9.8 8.2 90 1026.8 7.6 N 8.3 0.0 0.1
10:44 9.8 8.2 90 1026.8 10.7 N 10.7 0.0 0.1
10:45 9.8 8.2 90 1027.0 9.8 WNW 10.7 0.0 0.1
10:46 9.8 8.2 90 1027.0 9.2 NW 10.7 0.0 0.1
10:48 9.8 8.2 90 1026.8 7.6 NW 10.7 0.0 0.1
10:49 9.8 8.2 90 1026.8 9.8 NW 10.7 0.0 0.1
10:50 9.9 8.3 90 1027.0 8.3 N 10.7 0.0 0.1
10:51 9.9 8.2 89 1026.9 6.0 SE 10.7 0.0 0.1
10:52 9.9 8.2 89 1026.9 6.0 SE 10.7 0.0 0.1
10:53 9.9 8.2 89 1027.0 5.4 NW 10.7 0.0 0.1
10:54 9.9 8.2 89 1027.1 6.0 NE 10.7 0.0 0.1
10:55 9.9 8.2 89 1027.0 9.8 NE 9.8 0.0 0.1
10:56 9.9 8.2 89 1027.1 9.8 N 9.8 0.0 0.1
10:57 9.9 8.0 88 1027.2 5.4 NW 9.8 0.0 0.1
10:58 10.0 8.1 88 1027.2 6.0 SE 9.8 0.0 0.1
10:59 10.0 8.1 88 1027.2 7.6 NW 9.8 0.0 0.1
11:00 10.0 8.1 88 1027.2 9.2 N 9.8 0.0 0.1
11:01 10.0 8.1 88 1027.3 6.0 NW 9.8 0.0 0.1
11:02 10.0 8.1 88 1027.2 6.0 NW 9.8 0.0 0.1
11:03 10.1 8.2 88 1027.3 10.7 N 10.7 0.0 0.1
11:04 10.1 8.2 88 1027.1 8.3 W 10.7 0.0 0.1
11:05 10.1 8.2 88 1027.2 8.3 W 10.7 0.0 0.1
11:06 10.1 8.0 87 1027.2 9.2 NW 10.7 0.0 0.1
11:07 10.2 8.1 87 1027.1 7.6 NW 10.7 0.0 0.1
11:08 10.2 8.1 87 1027.3 7.6 NW 10.7 0.0 0.1
11:09 10.2 8.1 87 1027.2 4.5 SW 10.7 0.0 0.1
11:11 10.3 8.2 87 1027.4 9.2 E 12.1 0.0 0.1
11:12 10.3 8.2 87 1027.3 7.6 N 12.1 0.0 0.1
11:13 10.4 8.3 87 1027.1 9.8 NW 12.1 0.0 0.1
11:14 10.4 8.3 87 1027.2 8.3 NE 12.1 0.0 0.1
11:15 10.5 8.3 86 1027.2 5.4 SW 12.1 0.0 0.1
11:16 10.5 8.3 86 1027.3 12.1 SW 12.1 0.0 0.1
11:17 10.6 8.4 86 1027.2 8.3 NNE 12.1 0.0 0.1
11:18 10.6 8.4 86 1027.3 6.9 N 12.1 0.0 0.1
11:19 10.7 8.5 86 1027.1 8.3 SW 12.1 0.0 0.1
11:20 10.7 8.5 86 1027.1 6.9 NW 12.1 0.0 0.1
11:21 10.8 8.6 86 1027.2 9.8 NW 12.1 0.0 0.1
11:22 10.8 8.6 86 1027.3 8.3 SW 12.1 0.0 0.1
11:23 10.9 8.5 85 1027.3 4.5 W 12.1 0.0 0.1
11:24 10.9 8.5 85 1027.1 3.8 N 12.1 0.0 0.1
11:25 10.9 8.5 85 1027.2 9.2 SW 12.1 0.0 0.1
11:26 10.9 8.5 85 1027.1 11.4 N 11.4 0.0 0.1
11:28 10.9 8.3 84 1027.2 11.4 NNE 11.4 0.0 0.1
11:29 10.9 8.3 84 1027.4 7.6 WNW 11.4 0.0 0.1
11:30 10.8 8.2 84 1027.4 7.6 N 11.4 0.0 0.1
11:31 10.8 8.0 83 1027.2 9.8 E 11.4 0.0 0.1
11:32 10.8 8.0 83 1027.3 13.0 NE 13.0 0.0 0.1
11:33 10.7 7.9 83 1027.4 9.2 NW 13.0 0.0 0.1
11:34 10.7 7.8 82 1027.4 8.3 NW 13.0 0.0 0.1
11:35 10.7 7.8 82 1027.3 7.6 NW 13.0 0.0 0.1
11:36 10.6 7.7 82 1027.4 9.2 NW 13.0 0.0 0.1
11:37 10.6 7.7 82 1027.4 10.7 W 13.0 0.0 0.1
11:38 10.6 7.7 82 1027.5 6.9 W 13.0 0.0 0.1
11:39 10.6 7.7 82 1027.4 11.4 NW 13.0 0.0 0.1
11:40 10.5 7.6 82 1027.3 8.3 NE 13.0 0.0 0.1
11:41 10.5 7.6 82 1027.4 6.0 W 13.0 0.0 0.1
11:42 10.5 7.6 82 1027.4 6.0 W 11.4 0.0 0.1
11:44 10.6 7.7 82 1027.3 10.7 NE 11.4 0.0 0.1
11:45 10.6 7.7 82 1027.4 8.3 W 11.4 0.0 0.1
11:46 10.6 7.7 82 1027.4 7.6 W 11.4 0.0 0.1
11:47 10.7 7.6 81 1027.4 6.0 W 14.5 0.0 0.1
11:48 10.7 7.6 81 1027.4 6.0 W 14.5 0.0 0.1
11:49 10.7 7.6 81 1027.4 9.8 NW 14.5 0.0 0.1
11:50 10.8 7.7 81 1027.5 6.0 W 14.5 0.0 0.1
11:51 10.8 7.7 81 1027.3 6.9 NW 14.5 0.0 0.1
11:52 10.8 7.7 81 1027.4 10.7 NW 14.5 0.0 0.1
11:53 10.8 7.7 81 1027.5 7.6 W 14.5 0.0 0.1
11:54 10.8 7.7 81 1027.6 5.4 NW 14.5 0.0 0.1
11:55 10.9 7.8 81 1027.5 3.8 S 14.5 0.0 0.1
11:56 10.9 7.8 81 1027.5 7.6 NNW 14.5 0.0 0.1
11:57 10.9 7.8 81 1027.4 9.8 SW 10.7 0.0 0.1
11:58 11.0 7.9 81 1027.6 12.1 NW 12.1 0.0 0.1
11:59 11.0 7.9 81 1027.7 9.2 W 12.1 0.0 0.1
12:01 11.0 7.7 80 1027.6 7.6 SW 12.1 0.0 0.1
12:02 11.0 7.7 80 1027.6 7.6 SW 12.1 0.0 0.1
12:03 11.1 7.8 80 1027.7 6.0 N 12.1 0.0 0.1
12:04 11.1 7.8 80 1027.8 8.3 N 12.1 0.0 0.1
12:05 11.1 7.8 80 1027.7 6.0 N 12.1 0.0 0.1
12:06 11.1 7.8 80 1027.7 6.0 N 12.1 0.0 0.1
12:07 11.1 7.8 80 1027.7 9.2 W 12.1 0.0 0.1
12:08 11.1 7.8 80 1027.8 7.6 WNW 12.1 0.0 0.1
12:09 11.1 7.6 79 1027.6 7.6 W 11.4 0.0 0.1
12:10 11.1 7.6 79 1027.8 7.6 NW 10.7 0.0 0.1
12:11 11.1 7.6 79 1028.0 9.2 N 9.8 0.0 0.1
12:12 11.0 7.5 79 1027.9 11.4 W 11.4 0.0 0.1
12:13 11.0 7.3 78 1027.9 11.4 W 11.4 0.0 0.1
12:14 10.9 7.2 78 1027.8 11.4 NW 11.4 0.0 0.1
12:15 10.9 7.2 78 1028.0 7.6 W 11.4 0.0 0.1
12:16 10.8 7.1 78 1027.9 8.3 NW 11.4 0.0 0.1
12:18 10.8 6.9 77 1028.0 12.1 NW 12.1 0.0 0.1
12:19 10.8 6.9 77 1027.8 9.8 NW 12.1 0.0 0.1
12:20 10.8 6.9 77 1028.0 8.3 NW 12.1 0.0 0.1
12:21 10.8 6.9 77 1028.0 8.3 NW 12.1 0.0 0.1
12:22 10.8 6.9 77 1028.1 3.1 N 12.1 0.0 0.1
12:23 10.8 6.9 77 1028.0 12.1 NW 12.1 0.0 0.1
12:24 10.9 7.0 77 1028.1 9.2 NW 12.1 0.0 0.1
12:25 10.9 7.0 77 1028.2 9.8 W 12.1 0.0 0.1
12:26 10.9 7.0 77 1028.2 9.8 W 12.1 0.0 0.1
12:27 10.9 7.0 77 1028.2 3.8 NW 12.1 0.0 0.1
12:28 11.0 7.1 77 1028.3 5.4 NW 12.1 0.0 0.1
12:29 11.0 7.1 77 1028.2 10.7 W 12.1 0.0 0.1
12:30 11.0 7.1 77 1028.3 8.3 NW 12.1 0.0 0.1
12:31 11.1 7.0 76 1028.3 7.6 SW 12.1 0.0 0.1
12:32 11.1 7.0 76 1028.2 10.7 NW 12.1 0.0 0.1
12:34 11.1 7.0 76 1028.3 10.7 NW 10.7 0.0 0.1
12:35 11.1 7.0 76 1028.3 6.9 NW 10.7 0.0 0.1
12:36 11.1 7.0 76 1028.3 3.8 WNW 10.7 0.0 0.1
12:37 11.1 7.0 76 1028.2 5.4 N 10.7 0.0 0.1
12:38 11.1 7.0 76 1028.2 7.6 W 10.7 0.0 0.1
12:39 11.2 7.1 76 1028.4 6.0 N 10.7 0.0 0.1
12:40 11.2 7.1 76 1028.3 4.5 NW 10.7 0.0 0.1
12:41 11.2 7.1 76 1028.2 10.7 W 10.7 0.0 0.1
12:42 11.3 7.2 76 1028.3 12.1 NW 12.1 0.0 0.1
12:43 11.3 7.2 76 1028.2 9.2 NW 12.1 0.0 0.1
12:44 11.2 6.9 75 1028.2 6.0 NW 12.1 0.0 0.1
12:45 11.2 6.9 75 1028.2 6.0 NW 12.1 0.0 0.1
12:46 11.2 6.9 75 1028.3 4.5 WNW 12.1 0.0 0.1
12:47 11.2 6.9 75 1028.2 6.9 N 12.1 0.0 0.1
12:48 11.1 6.8 75 1028.1 9.2 NW 12.1 0.0 0.1
12:49 11.1 6.8 75 1028.2 5.4 W 12.1 0.0 0.1
12:51 11.1 6.8 75 1028.1 8.3 W 12.1 0.0 0.1
12:52 11.0 6.7 75 1028.2 6.9 NW 9.8 0.0 0.1
12:53 11.0 6.7 75 1028.3 6.9 NW 9.8 0.0 0.1
12:54 11.0 6.7 75 1028.2 7.6 W 9.8 0.0 0.1
12:55 10.9 6.6 75 1028.3 6.9 W 9.2 0.0 0.1
12:56 10.9 6.6 75 1028.2 5.4 NE 9.2 0.0 0.1
12:57 10.9 6.6 75 1028.0 5.4 N 9.2 0.0 0.1
12:58 10.8 6.5 75 1028.2 7.6 NW 9.2 0.0 0.1
12:59 10.8 6.5 75 1028.3 6.9 NW 9.2 0.0 0.1
13:00 10.8 6.5 75 1028.2 6.0 NE 9.2 0.0 0.1
13:01 10.8 6.5 75 1028.2 6.9 N 8.3 0.0 0.1
13:02 10.8 6.5 75 1028.3 7.6 N 7.6 0.0 0.1
13:03 10.8 6.5 75 1028.4 7.6 N 7.6 0.0 0.1
13:04 10.8 6.7 76 1028.3 7.6 N 7.6 0.0 0.1
13:05 10.9 6.8 76 1028.2 3.1 N 7.6 0.0 0.1
13:06 10.9 6.8 76 1028.4 4.5 NW 7.6 0.0 0.1
13:07 11.0 6.9 76 1028.4 6.0 NW 7.6 0.0 0.1
13:08 11.0 6.9 76 1028.3 8.3 NW 8.3 0.0 0.1
13:09 11.1 7.0 76 1028.5 9.8 W 9.8 0.0 0.1
13:10 11.2 7.1 76 1028.2 8.3 W 9.8 0.0 0.1
13:11 11.2 7.1 76 1028.3 9.2 NW 9.8 0.0 0.1
13:12 11.2 7.1 76 1028.3 9.2 W 9.8 0.0 0.1
13:14 11.3 7.2 76 1028.3 6.9 NW 9.8 0.0 0.1
13:15 11.3 7.2 76 1028.4 6.9 W 9.8 0.0 0.1
13:16 11.3 7.2 76 1028.3 6.9 W 9.8 0.0 0.1
13:17 11.3 7.2 76 1028.3 6.9 SW 9.8 0.0 0.1
13:18 11.4 7.3 76 1028.2 6.0 NW 9.8 0.0 0.1
13:19 11.4 7.3 76 1028.3 10.7 W 10.7 0.0 0.1
13:20 11.4 7.3 76 1028.3 7.6 NW 10.7 0.0 0.1
13:21 11.4 7.3 76 1028.2 11.4 WNW 11.4 0.0 0.1
13:22 11.4 7.3 76 1028.3 7.6 NW 11.4 0.0 0.1
13:23 11.5 7.4 76 1028.3 3.8 W 11.4 0.0 0.1
13:24 11.5 7.4 76 1028.3 9.2 N 11.4 0.0 0.1
13:25 11.5 7.4 76 1028.4 6.0 W 11.4 0.0 0.1
13:26 11.6 7.5 76 1028.4 7.6 NNW 11.4 0.0 0.1
13:27 11.6 7.5 76 1028.2 7.6 SW 11.4 0.0 0.1
13:28 11.7 7.6 76 1028.4 10.7 W 11.4 0.0 0.1
13:29 11.7 7.6 76 1028.4 7.6 SW 11.4 0.0 0.1
13:30 11.7 7.4 75 1028.3 8.3 W 11.4 0.0 0.1
13:32 11.8 7.5 75 1028.3 6.9 W 11.4 0.0 0.1
13:33 11.8 7.5 75 1028.4 8.3 WNW 11.4 0.0 0.1
13:34 11.8 7.5 75 1028.4 6.9 NW 11.4 0.0 0.1
13:35 11.8 7.5 75 1028.5 10.7 W 11.4 0.0 0.1
13:36 11.8 7.5 75 1028.4 10.7 NW 11.4 0.0 0.1
13:37 11.8 7.3 74 1028.4 6.0 SW 11.4 0.0 0.1
13:38 11.7 7.2 74 1028.5 6.9 W 11.4 0.0 0.1
13:39 11.7 7.2 74 1028.4 7.6 WNW 11.4 0.0 0.1
13:40 11.7 7.2 74 1028.5 6.9 SW 11.4 0.0 0.1
13:41 11.7 7.2 74 1028.4 9.8 NW 10.7 0.0 0.1
13:42 11.6 7.1 74 1028.6 6.9 N 10.7 0.0 0.1
13:43 11.6 7.1 74 1028.5 3.8 W 10.7 0.0 0.1
13:44 11.6 7.1 74 1028.4 6.9 W 10.7 0.0 0.1
13:45 11.6 7.1 74 1028.3 7.6 WSW 10.7 0.0 0.1
13:46 11.5 7.0 74 1028.4 6.9 NW 9.8 0.0 0.1
13:47 11.5 7.0 74 1028.4 6.9 W 9.8 0.0 0.1
13:49 11.4 6.9 74 1028.5 5.4 N 9.8 0.0 0.1
13:50 11.4 6.9 74 1028.5 9.2 WSW 9.8 0.0 0.1
13:51 11.3 6.8 74 1028.4 5.4 WNW 9.2 0.0 0.1
13:52 11.3 6.8 74 1028.4 5.4 WNW 9.2 0.0 0.1
13:53 11.3 6.8 74 1028.5 6.0 N 9.2 0.0 0.1
13:54 11.2 6.7 74 1028.6 6.0 W 9.2 0.0 0.1
13:55 11.2 6.7 74 1028.6 5.4 NW 9.2 0.0 0.1
13:56 11.2 6.7 74 1028.5 6.0 SW 9.2 0.0 0.1
13:57 11.2 6.7 74 1028.6 6.0 NW 9.2 0.0 0.1
13:58 11.3 6.8 74 1028.5 6.0 WNW 9.2 0.0 0.1
13:59 11.2 6.7 74 1028.5 6.9 W 9.2 0.0 0.1
14:00 11.1 6.6 74 1028.6 4.5 W 9.2 0.0 0.1
14:01 11.0 6.5 74 1028.7 5.4 W 6.9 0.0 0.1
14:02 11.0 6.5 74 1028.7 5.4 W 6.9 0.0 0.1
14:03 11.0 6.5 74 1028.6 6.9 E 6.9 0.0 0.1
14:04 11.0 6.5 74 1028.6 5.4 NW 6.9 0.0 0.1
14:05 11.0 6.7 75 1028.5 6.9 NW 6.9 0.0 0.1
14:07 11.2 6.9 75 1028.7 6.9 W 7.6 0.0 0.1
14:08 11.1 6.8 75 1028.7 5.4 S 7.6 0.0 0.1
14:09 11.1 6.8 75 1028.6 5.4 NW 7.6 0.0 0.1
14:10 11.1 6.8 75 1028.7 6.0 NW 7.6 0.0 0.1
14:11 11.2 6.9 75 1028.6 6.9 W 7.6 0.0 0.1
14:12 11.3 7.0 75 1028.7 6.9 NW 7.6 0.0 0.1
14:13 11.2 6.9 75 1028.8 6.9 NW 7.6 0.0 0.1
14:14 11.2 6.9 75 1028.7 6.9 W 7.6 0.0 0.1
14:15 11.2 6.9 75 1028.6 7.6 W 7.6 0.0 0.1
14:16 11.2 6.9 75 1028.8 8.3 WNW 8.3 0.0 0.1
14:17 11.2 6.9 75 1028.7 7.6 NW 8.3 0.0 0.1
14:18 11.1 6.8 75 1028.8 6.9 NW 8.3 0.0 0.1
14:19 11.0 6.7 75 1028.7 5.4 W 8.3 0.0 0.1
14:20 11.0 6.7 75 1028.8 3.8 SW 8.3 0.0 0.1
14:21 11.0 6.7 75 1028.7 6.9 SW 8.3 0.0 0.1
14:22 11.0 6.7 75 1028.8 8.3 NW 8.3 0.0 0.1
14:23 11.0 6.7 75 1028.9 6.0 W 8.3 0.0 0.1
14:25 11.0 6.7 75 1028.8 6.0 W 8.3 0.0 0.1
14:26 11.0 6.7 75 1028.8 5.4 SW 8.3 0.0 0.1
14:27 11.0 6.7 75 1028.8 5.4 SW 8.3 0.0 0.1
14:28 11.0 6.9 76 1028.8 5.4 SW 8.3 0.0 0.1
14:29 10.9 6.8 76 1028.9 6.0 NE 8.3 0.0 0.1
14:30 10.9 6.8 76 1028.8 2.2 N 8.3 0.0 0.1
14:31 10.9 6.8 76 1028.8 5.4 NW 8.3 0.0 0.1
14:32 10.9 6.8 76 1028.8 6.0 SW 8.3 0.0 0.1
14:33 10.9 6.8 76 1029.0 6.9 SW 6.9 0.0 0.1
14:34 10.9 6.8 76 1028.9 6.9 W 6.9 0.0 0.1
14:35 10.9 6.8 76 1029.0 5.4 WSW 6.9 0.0 0.1
14:36 10.9 6.8 76 1029.0 5.4 W 6.9 0.0 0.1
14:37 10.9 6.8 76 1029.3 6.0 NW 6.9 0.0 0.1
14:38 10.8 6.7 76 1029.1 5.4 SW 6.9 0.0 0.1
14:39 10.8 6.7 76 1028.9 4.5 W 6.9 0.0 0.1
14:40 10.8 6.7 76 1029.1 3.8 W 6.9 0.0 0.1
14:41 10.8 6.7 76 1029.1 4.5 WNW 6.9 0.0 0.1
14:42 10.8 6.7 76 1029.1 4.5 N 6.9 0.0 0.1
14:44 10.8 6.7 76 1029.1 4.5 W 6.0 0.0 0.1
14:45 10.8 6.7 76 1029.2 4.5 NW 6.0 0.0 0.1
14:46 10.8 6.7 76 1029.0 4.5 NW 6.0 0.0 0.1
14:47 10.8 6.9 77 1029.0 3.8 N 6.0 0.0 0.1
14:48 10.9 7.0 77 1029.0 5.4 WNW 6.0 0.0 0.1
14:49 10.9 7.0 77 1028.9 5.4 W 6.0 0.0 0.1
14:50 10.9 7.0 77 1028.9 4.5 NW 6.0 0.0 0.1
14:51 10.9 7.0 77 1029.0 4.5 W 6.0 0.0 0.1
14:52 10.9 7.0 77 1028.9 8.3 W 8.3 0.0 0.1
14:53 10.9 6.8 76 1029.0 6.9 NW 8.3 0.0 0.1
14:54 10.9 7.0 77 1028.9 6.0 N 8.3 0.0 0.1
14:55 10.9 7.0 77 1029.0 8.3 NNW 8.3 0.0 0.1
14:56 10.9 6.8 76 1029.1 3.8 NW 8.3 0.0 0.1
14:57 10.9 6.8 76 1029.0 5.4 W 8.3 0.0 0.1
14:58 10.9 7.0 77 1029.1 3.1 W 8.3 0.0 0.1
14:59 10.9 7.0 77 1029.1 3.1 S 8.3 0.0 0.1
15:00 11.0 7.1 77 1029.1 6.9 SW 8.3 0.0 0.1
15:01 11.0 7.1 77 1029.0 7.6 NW 8.3 0.0 0.1
15:03 11.0 7.1 77 1029.0 7.6 NW 8.3 0.0 0.1
15:04 11.0 7.1 77 1029.3 7.6 NW 8.3 0.0 0.1
15:05 11.0 7.1 77 1029.1 7.6 NW 7.6 0.0 0.1
15:06 10.9 6.8 76 1029.2 3.8 WSW 7.6 0.0 0.1
15:07 10.9 6.8 76 1029.1 3.8 NW 7.6 0.0 0.1
15:08 10.9 7.0 77 1029.3 3.1 NW 7.6 0.0 0.1
15:09 10.9 6.8 76 1029.2 0.0 NW 7.6 0.0 0.1
15:10 10.9 7.0 77 1029.3 3.8 SW 7.6 0.0 0.1
15:11 10.9 7.0 77 1029.3 3.8 SW 7.6 0.0 0.1
15:12 10.9 7.0 77 1029.4 3.8 NW 7.6 0.0 0.1
15:13 10.9 7.0 77 1029.3 3.8 S 7.6 0.0 0.1
15:14 10.9 7.0 77 1029.5 4.5 W 7.6 0.0 0.1
15:15 10.9 7.0 77 1029.3 4.5 NW 7.6 0.0 0.1
15:16 10.9 7.0 77 1029.4 1.6 NW 4.5 0.0 0.1
15:17 10.9 7.0 77 1029.4 3.8 W 4.5 0.0 0.1
15:18 11.0 7.1 77 1029.5 3.8 W 4.5 0.0 0.1
15:19 11.0 7.1 77 1029.4 5.4 NW 5.4 0.0 0.1
15:20 11.1 7.2 77 1029.5 4.5 W 5.4 0.0 0.1
15:21 11.1 7.2 77 1029.4 4.5 SW 5.4 0.0 0.1
15:22 11.2 7.3 77 1029.5 5.4 NW 5.4 0.0 0.1
15:23 11.2 7.3 77 1029.6 3.1 NW 5.4 0.0 0.1
15:24 11.2 7.3 77 1029.4 3.1 W 5.4 0.0 0.1
15:25 11.2 7.3 77 1029.5 3.8 N 5.4 0.0 0.1
15:27 11.3 7.4 77 1029.6 3.1 NW 5.4 0.0 0.1
15:28 11.3 7.4 77 1029.6 4.5 NW 5.4 0.0 0.1
15:29 11.3 7.2 76 1029.5 4.5 N 5.4 0.0 0.1
15:30 11.4 7.3 76 1029.4 1.6 N 5.4 0.0 0.1
15:31 11.3 7.2 76 1029.4 3.8 NW 5.4 0.0 0.1
15:32 11.4 7.3 76 1029.4 3.1 WSW 5.4 0.0 0.1
15:33 11.4 7.3 76 1029.5 5.4 N 5.4 0.0 0.1
15:34 11.4 7.3 76 1029.4 1.6 NW 5.4 0.0 0.1
15:35 11.4 7.3 76 1029.4 4.5 WNW 5.4 0.0 0.1
15:36 11.4 7.3 76 1029.4 5.4 SW 5.4 0.0 0.1
15:37 11.4 7.3 76 1029.4 4.5 WNW 5.4 0.0 0.1
15:38 11.4 7.3 76 1029.4 3.1 N 5.4 0.0 0.1
15:39 11.4 7.1 75 1029.7 2.2 N 5.4 0.0 0.1
15:40 11.4 7.1 75 1029.4 2.2 NW 5.4 0.0 0.1
15:41 11.4 7.1 75 1029.6 1.6 NW 5.4 0.0 0.1
15:42 11.4 7.1 75 1029.5 3.1 N 5.4 0.0 0.1
15:43 11.4 7.1 75 1029.5 3.8 NW 5.4 0.0 0.1
15:44 11.4 7.1 75 1029.5 1.6 NW 5.4 0.0 0.1
15:46 11.4 7.1 75 1029.5 3.1 NW 5.4 0.0 0.1
15:47 11.3 7.0 75 1029.6 5.4 NW 5.4 0.0 0.1
15:48 11.3 7.0 75 1029.5 5.4 NW 5.4 0.0 0.1
15:49 11.3 7.0 75 1029.5 4.5 W 5.4 0.0 0.1
15:50 11.2 6.7 74 1029.5 3.8 S 5.4 0.0 0.1
15:51 11.2 6.7 74 1029.7 5.4 W 5.4 0.0 0.1
15:52 11.2 6.7 74 1029.6 3.8 W 5.4 0.0 0.1
15:53 11.1 6.6 74 1029.5 3.1 WSW 5.4 0.0 0.1
15:54 11.0 6.5 74 1029.7 2.2 W 5.4 0.0 0.1
15:55 11.0 6.5 74 1029.7 3.1 NW 5.4 0.0 0.1
15:56 11.0 6.5 74 1029.6 3.1 SW 5.4 0.0 0.1
15:57 10.9 6.5 74 1029.5 3.8 SSW 5.4 0.0 0.1
15:58 10.9 6.5 74 1029.7 3.1 W 5.4 0.0 0.1
15:59 10.8 6.5 75 1029.6 2.2 SW 5.4 0.0 0.1
16:00 10.8 6.4 74 1029.6 3.8 SW 5.4 0.0 0.1
16:01 10.8 6.5 75 1029.6 3.1 NW 3.8 0.0 0.1
16:02 10.7 6.5 75 1029.7 2.2 SW 3.8 0.0 0.1
16:04 10.7 6.5 75 1029.7 1.6 NW 3.8 0.0 0.1
16:05 10.6 6.4 75 1029.7 3.1 NW 3.8 0.0 0.1
16:06 10.6 6.4 75 1029.7 3.1 NW 3.8 0.0 0.1
16:07 10.6 6.4 75 1029.7 3.1 W 3.8 0.0 0.1
16:08 10.6 6.4 75 1029.8 1.6 N 3.8 0.0 0.1
16:09 10.6 6.4 75 1029.6 3.1 NW 3.8 0.0 0.1
16:10 10.6 6.4 75 1029.8 3.1 NW 3.8 0.0 0.1
16:11 10.6 6.4 75 1029.7 3.8 W 3.8 0.0 0.1
16:12 10.6 6.4 75 1029.8 4.5 W 4.5 0.0 0.1
16:13 10.5 6.3 75 1029.6 3.8 W 4.5 0.0 0.1
16:14 10.5 6.3 75 1029.6 3.1 W 4.5 0.0 0.1
16:15 10.5 6.3 75 1029.6 2.2 NW 4.5 0.0 0.1
16:16 10.5 6.3 75 1029.7 3.8 NW 4.5 0.0 0.1
16:17 10.5 6.3 75 1029.7 3.8 W 4.5 0.0 0.1
16:18 10.5 6.3 75 1029.6 2.2 NW 4.5 0.0 0.1
16:19 10.5 6.3 75 1029.6 0.7 NE 4.5 0.0 0.1
16:21 10.6 6.4 75 1029.9 2.2 WNW 4.5 0.0 0.1
16:22 10.6 6.4 75 1029.7 2.2 NW 3.8 0.0 0.1
16:23 10.6 6.4 75 1029.7 1.6 NW 3.8 0.0 0.1
16:24 10.6 6.5 76 1029.8 2.2 NW 3.8 0.0 0.1
16:25 10.7 6.6 76 1029.8 2.2 N 3.8 0.0 0.1
16:26 10.7 6.6 76 1029.7 1.6 N 3.8 0.0 0.1
16:27 10.7 6.6 76 1029.7 0.7 N 3.8 0.0 0.1
16:28 10.7 6.6 76 1029.7 1.6 N 3.1 0.0 0.1
16:29 10.8 6.7 76 1029.8 0.0 WNW 2.2 0.0 0.1
16:30 10.8 6.7 76 1029.7 1.6 SW 2.2 0.0 0.1
16:31 10.9 6.8 76 1029.9 0.0 W 2.2 0.0 0.1
16:32 10.9 6.8 76 1029.9 0.0 W 2.2 0.0 0.1
16:33 10.9 6.8 76 1029.8 0.0 NW 2.2 0.0 0.1
16:34 10.9 6.8 76 1029.8 1.6 SW 2.2 0.0 0.1
16:35 11.0 6.9 76 1029.8 3.8 W 3.8 0.0 0.1
16:36 11.0 6.9 76 1029.9 2.2 NW 3.8 0.0 0.1
16:38 11.0 6.7 75 1029.8 3.1 WNW 3.8 0.0 0.1
16:39 11.0 6.7 75 1029.8 3.1 WNW 3.8 0.0 0.1
16:40 10.9 6.6 75 1029.8 2.2 W 3.8 0.0 0.1
16:41 10.9 6.6 75 1029.9 0.7 W 3.8 0.0 0.1
16:42 10.9 6.6 75 1029.9 0.0 W 3.8 0.0 0.1
16:43 10.9 6.6 75 1030.0 0.0 NW 3.8 0.0 0.1
16:44 10.9 6.6 75 1030.0 0.0 NW 3.8 0.0 0.1
16:45 10.8 6.5 75 1029.9 1.6 NW 3.8 0.0 0.1
16:46 10.8 6.5 75 1030.0 1.6 W 3.1 0.0 0.1
16:47 10.8 6.5 75 1030.0 2.2 NW 3.1 0.0 0.1
16:48 10.8 6.5 75 1030.0 2.2 NW 3.1 0.0 0.1
16:49 10.8 6.5 75 1030.0 3.1 NW 3.1 0.0 0.1
16:50 10.7 6.5 75 1030.1 2.2 W 3.1 0.0 0.1
16:51 10.7 6.5 75 1030.2 2.2 SW 3.1 0.0 0.1
16:52 10.7 6.5 75 1030.2 2.2 WSW 3.1 0.0 0.1
16:53 10.6 6.4 75 1030.3 3.1 NW 3.1 0.0 0.1
16:54 10.6 6.4 75 1030.3 2.2 W 3.1 0.0 0.1
16:57 10.5 6.3 75 1030.3 1.6 SW 3.1 0.0 0.1
16:58 10.5 6.3 75 1030.3 0.0 NW 3.1 0.0 0.1
16:59 10.5 6.3 75 1030.2 1.6 W 3.1 0.0 0.1
17:00 10.5 6.3 75 1030.2 2.2 NW 3.1 0.0 0.1
17:01 10.4 6.2 75 1030.3 2.2 W 3.1 0.0 0.1
17:02 10.4 6.2 75 1030.2 0.0 W 3.1 0.0 0.1
17:03 10.4 6.2 75 1030.2 0.0 W 3.1 0.0 0.1
17:04 10.4 6.2 75 1030.3 0.0 W 3.1 0.0 0.1
17:05 10.4 6.4 76 1030.3 2.2 W 2.2 0.0 0.1
17:06 10.4 6.4 76 1030.4 3.1 W 3.1 0.0 0.1
17:07 10.4 6.4 76 1030.4 2.2 W 3.1 0.0 0.1
17:08 10.4 6.4 76 1030.5 3.1 SW 3.1 0.0 0.1
17:09 10.4 6.4 76 1030.6 3.1 W 3.1 0.0 0.1
17:10 10.3 6.3 76 1030.4 3.1 W 3.1 0.0 0.1
17:11 10.3 6.3 76 1030.4 1.6 S 3.1 0.0 0.1
17:12 10.3 6.3 76 1030.4 1.6 W 3.1 0.0 0.1
17:13 10.3 6.3 76 1030.5 0.7 W 3.1 0.0 0.1
17:14 10.3 6.3 76 1030.5 0.0 W 3.1 0.0 0.1
17:15 10.2 6.2 76 1030.6 0.0 W 3.1 0.0 0.1
17:16 10.2 6.2 76 1030.5 0.0 W 3.1 0.0 0.1
17:17 10.2 6.2 76 1030.4 0.0 SW 3.1 0.0 0.1
17:18 10.1 6.1 76 1030.4 0.0 W 3.1 0.0 0.1
17:19 10.1 6.1 76 1030.5 0.0 W 3.1 0.0 0.1
17:20 10.1 6.1 76 1030.4 0.0 W 3.1 0.0 0.1
17:21 10.1 6.1 76 1030.4 0.0 W 1.6 0.0 0.1
17:22 10.0 6.0 76 1030.7 0.0 W 0.7 0.0 0.1
17:23 10.0 6.0 76 1030.6 0.0 NE 0.0 0.0 0.1
17:24 10.0 6.0 76 1030.5 0.0 W 0.0 0.0 0.1
17:25 10.0 6.0 76 1030.6 0.0 NW 0.0 0.0 0.1
17:26 10.0 6.0 76 1030.8 0.0 NW 0.0 0.0 0.1
17:27 9.9 5.9 76 1030.6 0.0 NW 0.0 0.0 0.1
17:28 9.9 5.9 76 1030.5 0.0 NW 0.0 0.0 0.1
17:29 9.9 5.9 76 1030.7 0.0 NW 0.0 0.0 0.1
17:30 9.8 5.8 76 1030.5 0.0 NW 0.0 0.0 0.1
17:31 9.8 5.8 76 1030.5 0.0 NW 0.0 0.0 0.1
17:32 9.8 5.8 76 1030.4 0.0 W 0.0 0.0 0.1
17:33 9.8 6.0 77 1030.4 0.0 NW 0.0 0.0 0.1
17:34 9.7 5.9 77 1030.4 0.0 N 0.0 0.0 0.1
17:35 9.7 5.9 77 1030.4 0.0 N 0.0 0.0 0.1
17:36 9.6 5.8 77 1030.3 0.0 W 0.0 0.0 0.1
17:37 9.6 5.8 77 1030.4 0.0 W 0.0 0.0 0.1
17:38 9.6 5.8 77 1030.4 0.0 N 0.0 0.0 0.1
17:40 9.5 5.7 77 1030.4 0.0 NW 0.0 0.0 0.1
17:41 9.5 5.7 77 1030.5 0.0 NW 0.0 0.0 0.1
17:42 9.4 5.6 77 1030.6 0.0 NW 0.0 0.0 0.1
17:43 9.4 5.6 77 1030.5 0.0 NW 0.0 0.0 0.1
17:44 9.4 5.6 77 1030.5 0.0 NW 0.0 0.0 0.1
17:45 9.3 5.5 77 1030.6 0.0 N 0.0 0.0 0.1
17:46 9.3 5.5 77 1030.6 0.0 N 0.0 0.0 0.1
17:47 9.2 5.4 77 1030.5 0.0 N 0.0 0.0 0.1
17:48 9.2 5.4 77 1030.4 0.0 N 0.0 0.0 0.1
17:49 9.1 5.3 77 1030.4 0.0 N 0.0 0.0 0.1
17:50 9.1 5.3 77 1030.4 0.0 N 0.0 0.0 0.1
17:51 9.0 5.2 77 1030.4 0.0 NE 0.0 0.0 0.1
17:52 8.9 5.1 77 1030.5 0.0 NE 0.0 0.0 0.1
17:53 8.8 5.0 77 1030.4 0.0 NE 0.0 0.0 0.1
17:54 8.8 5.0 77 1030.4 0.0 N 0.0 0.0 0.1
17:55 8.7 4.9 77 1030.4 0.7 NE 1.6 0.0 0.1
17:56 8.7 4.9 77 1030.4 0.0 NE 1.6 0.0 0.1
17:57 8.7 4.9 77 1030.4 0.7 NE 1.6 0.0 0.1
17:58 8.6 4.8 77 1030.4 0.0 NE 1.6 0.0 0.1
17:59 8.6 5.0 78 1030.5 0.0 NE 1.6 0.0 0.1
18:00 8.5 4.9 78 1030.4 0.0 NE 1.6 0.0 0.1
18:01 8.5 4.9 78 1030.5 0.0 NE 1.6 0.0 0.1
18:02 8.5 4.9 78 1030.3 0.0 NE 1.6 0.0 0.1
18:03 8.5 4.9 78 1030.2 0.0 NE 1.6 0.0 0.1
18:04 8.5 4.9 78 1030.4 0.0 NE 1.6 0.0 0.1
18:05 8.5 4.9 78 1030.3 0.0 NE 0.7 0.0 0.1
18:06 8.5 4.9 78 1030.3 0.0 NE 0.7 0.0 0.1
18:07 8.5 4.9 78 1030.3 0.0 NE 0.0 0.0 0.1
18:08 8.2 4.6 78 1030.4 0.0 N 0.0 0.0 0.1
18:09 8.2 4.6 78 1030.4 0.0 N 0.0 0.0 0.1
18:10 8.1 4.5 78 1030.4 0.0 N 0.0 0.0 0.1
18:11 8.0 4.4 78 1030.3 0.0 NE 0.0 0.0 0.1
18:12 8.0 4.4 78 1030.4 0.0 NE 0.0 0.0 0.1
18:13 8.0 4.4 78 1030.5 0.0 NE 0.0 0.0 0.1
18:14 7.9 4.3 78 1030.4 0.0 NE 0.0 0.0 0.1
18:15 7.9 4.3 78 1030.6 0.0 NE 0.0 0.0 0.1
18:16 7.8 4.2 78 1030.4 0.0 NE 0.0 0.0 0.1
18:17 7.8 4.4 79 1030.4 0.0 NE 0.0 0.0 0.1
18:18 7.8 4.4 79 1030.6 0.0 N 0.0 0.0 0.1
18:19 7.8 4.4 79 1030.4 0.0 NW 0.0 0.0 0.1
18:20 7.7 4.3 79 1030.4 0.0 W 0.0 0.0 0.1
18:21 7.7 4.3 79 1030.5 0.0 W 0.0 0.0 0.1
18:22 7.6 4.2 79 1030.5 0.0 W 0.0 0.0 0.1
18:23 7.6 4.2 79 1030.4 0.0 W 0.0 0.0 0.1
18:24 7.5 4.1 79 1030.5 0.0 N 0.0 0.0 0.1
18:25 7.4 4.0 79 1030.5 0.0 N 0.0 0.0 0.1
18:26 7.4 4.0 79 1030.4 0.0 N 0.0 0.0 0.1
18:27 7.4 4.0 79 1030.5 0.0 NE 0.0 0.0 0.1
18:28 7.3 3.9 79 1030.5 0.0 E 0.0 0.0 0.1
18:29 7.3 3.9 79 1030.4 0.7 NE 0.7 0.0 0.1
18:30 7.3 3.9 79 1030.4 0.7 NE 0.7 0.0 0.1
18:31 7.2 3.8 79 1030.5 0.0 NE 0.7 0.0 0.1
18:32 7.2 3.8 79 1030.6 0.0 NE 0.7 0.0 0.1
18:33 7.2 3.8 79 1030.6 0.0 NE 0.7 0.0 0.1
18:34 7.1 3.7 79 1030.5 0.0 NE 0.7 0.0 0.1
18:35 7.1 3.9 80 1030.5 0.0 NE 0.7 0.0 0.1
18:36 7.1 3.9 80 1030.7 0.0 W 0.7 0.0 0.1
18:37 7.1 3.9 80 1030.5 0.0 W 0.7 0.0 0.1
18:38 7.1 3.9 80 1030.4 0.0 NW 0.7 0.0 0.1
18:39 7.0 3.8 80 1030.4 1.6 W 1.6 0.0 0.1
18:40 7.0 3.8 80 1030.5 0.7 SW 1.6 0.0 0.1
18:41 6.9 3.7 80 1030.5 0.0 SW 1.6 0.0 0.1
18:42 6.9 3.7 80 1030.4 0.0 N 1.6 0.0 0.1
18:43 6.8 3.6 80 1030.5 0.0 NE 1.6 0.0 0.1
18:44 6.7 3.5 80 1030.4 0.0 NE 1.6 0.0 0.1
18:45 6.7 3.5 80 1030.6 0.0 NE 1.6 0.0 0.1
18:46 6.6 3.4 80 1030.5 0.0 NE 1.6 0.0 0.1
18:47 6.6 3.4 80 1030.6 0.0 N 1.6 0.0 0.1
18:48 6.6 3.4 80 1030.7 0.0 N 1.6 0.0 0.1
18:49 6.6 3.4 80 1030.7 0.0 NE 0.7 0.0 0.1
18:50 6.6 3.4 80 1030.7 0.0 N 0.0 0.0 0.1
18:51 6.5 3.3 80 1030.6 0.0 N 0.0 0.0 0.1
18:52 6.5 3.3 80 1030.5 0.0 N 0.7 0.0 0.1
18:53 6.5 3.5 81 1030.4 0.0 N 0.7 0.0 0.1
18:54 6.5 3.3 80 1030.4 0.0 N 0.7 0.0 0.1
18:55 6.5 3.5 81 1030.4 0.0 N 0.7 0.0 0.1
18:56 6.4 3.4 81 1030.5 0.0 N 0.7 0.0 0.1
18:57 6.5 3.5 81 1030.4 0.0 N 0.7 0.0 0.1
18:58 6.5 3.5 81 1030.4 0.0 N 0.7 0.0 0.1
18:59 6.5 3.5 81 1030.5 0.0 N 0.7 0.0 0.1
19:00 6.4 3.4 81 1030.5 0.0 NW 0.7 0.0 0.1
19:01 6.4 3.4 81 1030.5 0.0 NE 0.7 0.0 0.1
19:02 6.4 3.4 81 1030.5 0.0 NE 0.7 0.0 0.1
19:03 6.4 3.4 81 1030.7 0.0 NW 0.0 0.0 0.1
19:04 6.4 3.4 81 1030.4 0.0 NW 0.0 0.0 0.1
19:05 6.4 3.4 81 1030.7 0.0 NW 0.0 0.0 0.1
19:06 6.4 3.4 81 1030.5 0.0 NW 0.0 0.0 0.1
19:07 6.4 3.4 81 1030.6 0.0 NW 0.0 0.0 0.1
19:08 6.4 3.4 81 1030.6 0.0 NW 0.0 0.0 0.1
19:09 6.4 3.4 81 1030.6 0.0 NW 0.0 0.0 0.1
19:10 6.4 3.4 81 1030.6 0.0 NW 0.0 0.0 0.1
19:11 6.2 3.2 81 1030.7 0.0 N 0.0 0.0 0.1
19:12 6.2 3.4 82 1030.5 0.0 N 0.0 0.0 0.1
19:13 6.2 3.4 82 1030.7 0.0 N 0.0 0.0 0.1
19:14 6.2 3.4 82 1030.7 0.0 N 0.0 0.0 0.1
19:15 6.1 3.3 82 1030.7 0.0 N 0.0 0.0 0.1
19:16 6.1 3.3 82 1030.7 0.0 N 0.0 0.0 0.1
19:17 6.1 3.3 82 1030.8 0.0 N 0.0 0.0 0.1
19:18 6.1 3.3 82 1030.8 0.0 N 0.0 0.0 0.1
19:19 6.1 3.3 82 1030.7 0.7 NE 0.7 0.0 0.1
19:20 6.1 3.3 82 1030.8 0.0 N 0.7 0.0 0.1
19:21 6.1 3.3 82 1030.8 0.0 NE 0.7 0.0 0.1
19:22 6.1 3.3 82 1030.8 0.0 N 0.7 0.0 0.1
19:23 6.1 3.3 82 1030.8 0.0 W 0.7 0.0 0.1
19:24 6.0 3.2 82 1030.8 0.0 NW 0.7 0.0 0.1
19:25 6.1 3.3 82 1030.8 0.0 NW 0.7 0.0 0.1
19:26 6.1 3.3 82 1030.9 0.0 NW 0.7 0.0 0.1
19:27 6.0 3.2 82 1030.9 0.0 NW 0.7 0.0 0.1
19:28 6.0 3.2 82 1030.9 0.0 NW 0.7 0.0 0.1
19:29 6.0 3.2 82 1030.9 0.0 N 0.0 0.0 0.1
19:30 6.0 3.3 83 1030.7 0.0 N 0.0 0.0 0.1
19:31 6.0 3.3 83 1030.8 0.0 NNW 0.0 0.0 0.1
19:32 6.0 3.3 83 1030.9 0.0 NE 0.0 0.0 0.1
19:33 6.0 3.3 83 1030.8 0.0 E 0.0 0.0 0.1
19:34 6.0 3.3 83 1030.8 0.0 E 0.0 0.0 0.1
19:35 5.9 3.2 83 1030.9 0.0 E 0.0 0.0 0.1
19:36 6.0 3.3 83 1031.0 0.0 E 0.0 0.0 0.1
19:37 5.9 3.2 83 1030.9 0.0 E 0.0 0.0 0.1
19:38 5.9 3.2 83 1030.8 0.0 E 0.0 0.0 0.1
19:39 5.9 3.2 83 1031.0 0.0 W 0.0 0.0 0.1
19:40 5.9 3.2 83 1031.0 0.0 N 0.0 0.0 0.1
19:41 5.9 3.2 83 1031.1 0.0 N 0.0 0.0 0.1
19:42 5.9 3.2 83 1031.0 0.0 N 0.0 0.0 0.1
19:43 5.9 3.2 83 1031.1 0.0 N 0.0 0.0 0.1
19:44 5.9 3.2 83 1030.9 0.0 N 0.0 0.0 0.1
19:45 5.9 3.2 83 1031.0 0.0 N 0.0 0.0 0.1
19:46 5.9 3.2 83 1031.0 0.0 N 0.0 0.0 0.1
19:47 5.9 3.2 83 1031.0 0.0 N 0.0 0.0 0.1
19:48 5.9 3.4 84 1030.9 0.0 N 0.0 0.0 0.1
19:49 5.9 3.4 84 1031.1 0.0 N 0.0 0.0 0.1
19:50 5.9 3.4 84 1031.2 0.0 N 0.0 0.0 0.1
19:51 5.9 3.4 84 1031.1 0.0 N 0.0 0.0 0.1
19:52 5.9 3.4 84 1031.1 0.0 N 0.0 0.0 0.1
19:53 5.9 3.4 84 1031.1 0.0 N 0.0 0.0 0.1
19:54 6.0 3.5 84 1031.2 0.0 N 0.0 0.0 0.1
19:55 6.0 3.5 84 1031.1 0.0 N 0.0 0.0 0.1
19:56 5.9 3.4 84 1031.2 0.0 N 0.0 0.0 0.1
19:57 6.0 3.5 84 1031.1 0.0 N 0.0 0.0 0.1
19:58 6.0 3.5 84 1031.2 0.0 N 0.0 0.0 0.1
19:59 6.0 3.5 84 1031.3 0.0 N 0.0 0.0 0.1
20:00 6.0 3.5 84 1031.3 0.0 NE 0.0 0.0 0.1
20:01 6.0 3.5 84 1031.3 0.0 NE 0.0 0.0 0.1
20:02 6.0 3.5 84 1031.4 0.0 NE 0.0 0.0 0.1
20:03 6.0 3.5 84 1031.2 0.0 NE 0.0 0.0 0.1
20:04 6.0 3.5 84 1031.1 0.0 NE 0.0 0.0 0.1
20:05 6.0 3.5 84 1031.1 0.0 NE 0.0 0.0 0.1
20:06 6.0 3.7 85 1031.2 0.0 NE 0.0 0.0 0.1
20:07 6.0 3.7 85 1031.1 0.0 NE 0.0 0.0 0.1
20:08 6.0 3.7 85 1031.2 0.0 NE 0.0 0.0 0.1
20:09 6.0 3.7 85 1031.2 0.0 NE 0.0 0.0 0.1
20:10 6.0 3.7 85 1031.1 0.0 NE 0.0 0.0 0.1
20:11 6.0 3.7 85 1031.1 0.0 NE 0.0 0.0 0.1
20:12 6.0 3.7 85 1031.3 0.0 NE 0.0 0.0 0.1
20:13 6.0 3.7 85 1031.2 0.0 N 0.0 0.0 0.1
20:15 6.0 3.7 85 1031.3 0.0 E 0.7 0.0 0.1
20:16 6.0 3.7 85 1031.2 0.0 E 0.7 0.0 0.1
20:17 6.0 3.7 85 1031.1 0.0 E 0.7 0.0 0.1
20:18 6.0 3.7 85 1031.3 0.0 E 0.7 0.0 0.1
20:19 6.0 3.7 85 1031.2 0.0 E 0.7 0.0 0.1
20:20 6.0 3.7 85 1031.3 0.0 E 0.7 0.0 0.1
20:21 6.0 3.7 85 1031.4 0.0 E 0.7 0.0 0.1
20:22 5.9 3.6 85 1031.2 0.0 E 0.7 0.0 0.1
20:23 5.9 3.6 85 1031.3 0.0 N 0.7 0.0 0.1
20:24 5.8 3.5 85 1031.3 0.0 N 0.7 0.0 0.1
20:25 5.8 3.5 85 1031.3 0.0 E 0.0 0.0 0.1
20:26 5.8 3.5 85 1031.1 0.0 NE 0.0 0.0 0.1
20:27 5.8 3.5 85 1031.2 0.0 NE 0.0 0.0 0.1
20:28 5.7 3.4 85 1031.2 0.0 E 0.0 0.0 0.1
20:29 5.8 3.5 85 1031.3 0.0 E 0.0 0.0 0.1
20:30 5.7 3.4 85 1031.2 0.0 SE 0.0 0.0 0.1
20:31 5.8 3.5 85 1031.2 0.0 SE 0.0 0.0 0.1
20:32 5.7 3.4 85 1031.2 0.0 SE 0.0 0.0 0.1
20:33 5.8 3.5 85 1031.3 0.0 SE 0.0 0.0 0.1
20:34 5.8 3.5 85 1031.3 0.0 N 0.0 0.0 0.1
20:35 5.8 3.5 85 1031.2 0.0 E 0.0 0.0 0.1
20:36 5.7 3.5 86 1031.2 0.0 E 0.0 0.0 0.1
20:37 5.7 3.5 86 1031.2 0.0 N 0.0 0.0 0.1
20:38 5.7 3.5 86 1031.2 0.0 NE 0.0 0.0 0.1
20:39 5.7 3.5 86 1031.3 0.0 NE 0.0 0.0 0.1
20:40 5.7 3.5 86 1031.4 0.0 NE 0.0 0.0 0.1
20:41 5.7 3.5 86 1031.3 0.0 NE 0.0 0.0 0.1
20:42 5.7 3.5 86 1031.4 0.0 S 0.0 0.0 0.1
20:43 5.7 3.5 86 1031.4 0.0 NE 0.0 0.0 0.1
20:44 5.7 3.5 86 1031.3 0.0 SE 0.0 0.0 0.1
20:45 5.7 3.5 86 1031.3 0.0 N 0.0 0.0 0.1
20:46 5.7 3.5 86 1031.4 0.0 N 0.0 0.0 0.1
20:47 5.7 3.5 86 1031.3 0.0 NE 0.0 0.0 0.1
20:48 5.7 3.5 86 1031.5 0.0 NE 0.0 0.0 0.1
20:49 5.7 3.5 86 1031.4 0.0 NE 0.0 0.0 0.1
20:50 5.7 3.5 86 1031.4 0.0 NE 0.0 0.0 0.1
20:51 5.7 3.5 86 1031.4 0.0 SE 0.0 0.0 0.1
20:52 5.7 3.7 87 1031.4 0.0 NE 0.0 0.0 0.1
20:53 5.7 3.5 86 1031.3 0.0 NE 0.0 0.0 0.1
20:54 5.7 3.5 86 1031.4 0.0 NE 0.0 0.0 0.1
20:55 5.7 3.7 87 1031.5 0.0 NE 0.0 0.0 0.1
20:56 5.7 3.7 87 1031.4 0.0 N 0.0 0.0 0.1
20:57 5.7 3.7 87 1031.3 0.0 NE 0.0 0.0 0.1
20:58 5.7 3.7 87 1031.3 0.0 N 0.0 0.0 0.1
20:59 5.7 3.7 87 1031.4 0.0 SE 0.7 0.0 0.1
21:00 5.7 3.7 87 1031.3 0.0 E 0.7 0.0 0.1
21:01 5.7 3.7 87 1031.4 0.0 E 0.7 0.0 0.1
21:02 5.7 3.7 87 1031.3 0.0 E 0.7 0.0 0.1
21:03 5.7 3.7 87 1031.4 0.0 E 0.7 0.0 0.1
21:04 5.7 3.7 87 1031.4 0.0 E 0.7 0.0 0.1
21:05 5.7 3.7 87 1031.4 0.0 E 0.7 0.0 0.1
21:06 5.7 3.7 87 1031.4 0.0 E 0.7 0.0 0.1
21:07 5.6 3.6 87 1031.3 0.0 E 0.7 0.0 0.1
21:08 5.6 3.6 87 1031.4 0.0 E 0.7 0.0 0.1
21:09 5.6 3.6 87 1031.4 0.0 NE 0.0 0.0 0.1
21:10 5.6 3.6 87 1031.4 0.0 NE 0.0 0.0 0.1
21:11 5.5 3.5 87 1031.4 0.0 NE 0.0 0.0 0.1
21:12 5.5 3.5 87 1031.4 0.0 E 0.0 0.0 0.1
21:13 5.5 3.5 87 1031.6 0.0 E 0.0 0.0 0.1
21:14 5.5 3.5 87 1031.4 0.0 SE 0.0 0.0 0.1
21:15 5.5 3.5 87 1031.5 0.0 SE 0.0 0.0 0.1
21:16 5.6 3.6 87 1031.5 0.0 SE 0.0 0.0 0.1
21:17 5.6 3.6 87 1031.4 0.0 SE 0.0 0.0 0.1
21:18 5.6 3.6 87 1031.4 0.0 SE 0.0 0.0 0.1
21:19 5.5 3.5 87 1031.4 0.0 SE 0.0 0.0 0.1
21:20 5.5 3.5 87 1031.5 0.0 SE 0.0 0.0 0.1
21:21 5.5 3.5 87 1031.5 0.0 SE 0.0 0.0 0.1
21:22 5.5 3.5 87 1031.5 0.0 SE 0.0 0.0 0.1
21:23 5.5 3.5 87 1031.5 0.0 NE 0.0 0.0 0.1
21:25 5.5 3.7 88 1031.4 0.0 NE 0.0 0.0 0.1
21:26 5.5 3.5 87 1031.5 0.0 E 0.0 0.0 0.1
21:27 5.5 3.5 87 1031.4 0.0 NW 0.0 0.0 0.1
21:28 5.5 3.7 88 1031.4 0.0 E 0.0 0.0 0.1
21:29 5.5 3.7 88 1031.5 0.0 E 0.0 0.0 0.1
21:30 5.5 3.7 88 1031.5 0.0 E 0.0 0.0 0.1
21:31 5.5 3.7 88 1031.5 0.0 E 0.0 0.0 0.1
21:32 5.5 3.7 88 1031.5 0.0 E 0.0 0.0 0.1
21:33 5.5 3.7 88 1031.5 0.0 E 0.0 0.0 0.1
21:34 5.4 3.6 88 1031.5 0.0 NW 0.0 0.0 0.1
21:35 5.4 3.6 88 1031.4 0.0 NW 0.0 0.0 0.1
21:36 5.4 3.6 88 1031.5 0.0 NW 0.0 0.0 0.1
21:37 5.4 3.6 88 1031.5 0.0 NW 0.0 0.0 0.1
21:38 5.4 3.6 88 1031.5 0.0 NW 0.0 0.0 0.1
21:39 5.3 3.5 88 1031.6 0.0 NE 0.0 0.0 0.1
21:40 5.3 3.5 88 1031.5 0.0 NE 0.0 0.0 0.1
21:41 5.3 3.5 88 1031.5 0.0 NE 0.0 0.0 0.1
21:42 5.3 3.5 88 1031.5 0.0 SE 0.0 0.0 0.1
21:43 5.3 3.5 88 1031.4 0.0 SE 0.0 0.0 0.1
21:44 5.3 3.5 88 1031.5 0.0 SE 0.0 0.0 0.1
21:45 5.3 3.5 88 1031.4 0.0 SE 0.0 0.0 0.1
21:46 5.3 3.5 88 1031.5 0.0 SE 0.0 0.0 0.1
21:47 5.4 3.6 88 1031.4 0.0 SE 0.0 0.0 0.1
21:48 5.4 3.6 88 1031.3 0.0 SE 0.0 0.0 0.1
21:49 5.3 3.5 88 1031.5 0.0 SE 0.0 0.0 0.1
21:50 5.3 3.5 88 1031.5 0.0 SE 0.0 0.0 0.1
21:51 5.3 3.5 88 1031.5 0.0 SE 0.0 0.0 0.1
21:52 5.3 3.5 88 1031.5 0.0 SE 0.0 0.0 0.1
21:53 5.3 3.5 88 1031.5 0.7 NE 0.7 0.0 0.1
21:55 5.3 3.6 89 1031.5 0.0 NE 0.7 0.0 0.1
21:56 5.3 3.6 89 1031.4 0.0 NE 0.7 0.0 0.1
21:57 5.3 3.6 89 1031.5 0.0 NE 0.7 0.0 0.1
21:58 5.3 3.6 89 1031.3 0.0 NE 0.7 0.0 0.1
21:59 5.3 3.6 89 1031.4 0.0 E 0.7 0.0 0.1
22:00 5.3 3.6 89 1031.4 0.0 E 0.7 0.0 0.1
22:01 5.3 3.6 89 1031.3 0.0 E 0.7 0.0 0.1
22:02 5.3 3.6 89 1031.3 0.0 E 0.7 0.0 0.1
22:03 5.3 3.6 89 1031.4 0.0 E 0.7 0.0 0.1
22:04 5.3 3.6 89 1031.5 0.0 E 0.0 0.0 0.1
22:05 5.3 3.6 89 1031.3 0.0 E 0.0 0.0 0.1
22:06 5.3 3.6 89 1031.3 0.0 E 0.0 0.0 0.1
22:07 5.3 3.6 89 1031.3 0.0 E 0.0 0.0 0.1
22:08 5.3 3.6 89 1031.5 0.0 NE 0.0 0.0 0.1
22:09 5.3 3.6 89 1031.6 0.0 NE 0.0 0.0 0.1
22:10 5.3 3.6 89 1031.5 0.0 NE 0.0 0.0 0.1
22:11 5.3 3.6 89 1031.5 0.0 NE 0.0 0.0 0.1
22:12 5.3 3.6 89 1031.6 0.0 SE 0.0 0.0 0.1
22:13 5.3 3.6 89 1031.5 0.0 N 0.0 0.0 0.1
22:14 5.3 3.6 89 1031.6 0.0 NE 0.0 0.0 0.1
22:15 5.3 3.6 89 1031.7 0.0 S 0.0 0.0 0.1
22:16 5.3 3.6 89 1031.7 0.0 S 0.0 0.0 0.1
22:17 5.3 3.6 89 1031.7 0.0 NE 0.0 0.0 0.1
22:18 5.3 3.6 89 1031.7 0.0 E 0.0 0.0 0.1
22:19 5.3 3.6 89 1031.6 0.0 NE 0.0 0.0 0.1
22:20 5.3 3.6 89 1031.5 0.0 SE 0.0 0.0 0.1
22:22 5.3 3.6 89 1031.6 0.0 N 0.0 0.0 0.1
22:23 5.3 3.6 89 1031.6 0.0 E 0.0 0.0 0.1
22:24 5.2 3.5 89 1031.7 0.0 E 0.0 0.0 0.1
22:25 5.2 3.5 89 1031.6 0.0 E 0.0 0.0 0.1
22:26 5.2 3.5 89 1031.7 0.0 NE 0.0 0.0 0.1
22:27 5.2 3.5 89 1031.7 0.0 E 0.0 0.0 0.1
22:28 5.2 3.5 89 1031.6 0.0 NE 0.0 0.0 0.1
22:29 5.2 3.5 89 1031.7 0.0 E 0.0 0.0 0.1
22:30 5.2 3.5 89 1031.8 0.0 E 0.0 0.0 0.1
22:31 5.1 3.4 89 1031.7 0.0 SE 0.0 0.0 0.1
22:32 5.2 3.5 89 1031.7 0.0 SE 0.0 0.0 0.1
22:33 5.2 3.7 90 1031.7 0.0 SE 0.0 0.0 0.1
22:34 5.2 3.7 90 1031.7 0.0 SE 0.0 0.0 0.1
22:35 5.2 3.7 90 1031.7 0.0 SE 0.0 0.0 0.1
22:36 5.2 3.7 90 1031.6 0.0 W 0.0 0.0 0.1
22:37 5.1 3.6 90 1031.7 0.0 W 0.0 0.0 0.1
22:38 5.1 3.6 90 1031.5 0.0 W 0.0 0.0 0.1
22:39 5.1 3.6 90 1031.7 0.0 N 0.0 0.0 0.1
22:40 5.1 3.6 90 1031.8 0.0 N 0.0 0.0 0.1
22:41 5.1 3.6 90 1031.7 0.0 NE 0.0 0.0 0.1
22:42 5.1 3.6 90 1031.7 0.0 NE 0.0 0.0 0.1
22:43 5.1 3.6 90 1031.7 0.0 NE 0.0 0.0 0.1
22:44 5.1 3.6 90 1031.8 0.0 NE 0.0 0.0 0.1
22:45 5.1 3.6 90 1031.7 0.0 NE 0.0 0.0 0.1
22:46 5.1 3.6 90 1031.9 0.0 NE 0.0 0.0 0.1
22:47 5.1 3.6 90 1031.8 0.0 E 0.0 0.0 0.1
22:48 5.1 3.6 90 1031.9 0.0 SE 0.0 0.0 0.1
22:50 5.1 3.6 90 1031.7 0.0 SE 0.0 0.0 0.1
22:51 5.1 3.6 90 1031.8 0.0 SE 0.0 0.0 0.1
22:52 5.1 3.6 90 1031.9 0.0 SE 0.0 0.0 0.1
22:53 5.1 3.6 90 1031.9 0.0 N 0.0 0.0 0.1
22:54 5.1 3.6 90 1031.9 0.0 N 0.0 0.0 0.1
22:55 5.0 3.5 90 1031.9 0.0 N 0.0 0.0 0.1
22:56 5.0 3.5 90 1031.9 0.0 N 0.0 0.0 0.1
22:57 5.0 3.5 90 1031.8 0.0 N 0.0 0.0 0.1
22:58 5.0 3.5 90 1031.9 0.0 E 0.0 0.0 0.1
22:59 5.0 3.5 90 1031.9 0.0 E 0.0 0.0 0.1
23:00 5.0 3.5 90 1031.8 0.0 E 0.0 0.0 0.1
23:01 5.0 3.5 90 1031.8 0.0 E 0.0 0.0 0.1
23:02 5.0 3.5 90 1031.9 0.0 E 0.0 0.0 0.1
23:03 5.0 3.5 90 1032.0 0.0 E 0.0 0.0 0.1
23:04 5.0 3.5 90 1031.6 0.0 E 0.0 0.0 0.1
23:05 5.0 3.5 90 1032.0 0.0 E 0.0 0.0 0.1
23:06 5.0 3.5 90 1031.9 0.0 S 0.0 0.0 0.1
23:07 5.0 3.5 90 1031.6 0.0 S 0.0 0.0 0.1
23:08 5.0 3.5 90 1031.8 0.0 S 0.0 0.0 0.1
23:09 5.0 3.5 90 1031.8 0.0 S 0.0 0.0 0.1
23:10 5.0 3.5 90 1031.9 0.0 S 0.0 0.0 0.1
23:11 5.0 3.5 90 1031.9 0.0 E 0.0 0.0 0.1
23:12 4.9 3.4 90 1031.9 0.0 NE 0.0 0.0 0.1
23:13 4.9 3.4 90 1031.9 0.0 NE 0.0 0.0 0.1
23:14 4.9 3.4 90 1031.9 0.0 NE 0.0 0.0 0.1
23:15 4.9 3.4 90 1031.7 0.0 NE 0.0 0.0 0.1
23:16 4.9 3.6 91 1031.8 0.0 NE 0.0 0.0 0.1
23:17 4.9 3.6 91 1031.8 0.0 NE 0.0 0.0 0.1
23:18 4.9 3.6 91 1031.8 0.0 NW 0.0 0.0 0.1
23:19 4.9 3.6 91 1031.8 0.0 NW 0.0 0.0 0.1
23:20 4.9 3.6 91 1031.8 0.0 NW 0.0 0.0 0.1
23:21 4.9 3.6 91 1031.7 0.0 NW 0.0 0.0 0.1
23:22 4.8 3.5 91 1031.8 0.0 NW 0.0 0.0 0.1
23:23 4.8 3.5 91 1031.9 0.0 NW 0.0 0.0 0.1
23:24 4.8 3.5 91 1031.9 0.0 NW 0.0 0.0 0.1
23:25 4.8 3.5 91 1031.9 0.0 NE 0.0 0.0 0.1
23:26 4.8 3.5 91 1031.9 0.0 E 0.0 0.0 0.1
23:27 4.8 3.5 91 1031.9 0.0 NE 0.0 0.0 0.1
23:28 4.7 3.4 91 1031.8 0.0 NE 0.0 0.0 0.1
23:29 4.7 3.4 91 1032.0 0.0 NE 0.0 0.0 0.1
23:30 4.7 3.4 91 1032.0 0.0 ESE 0.0 0.0 0.1
23:31 4.8 3.5 91 1031.9 0.0 N 0.0 0.0 0.1
23:32 4.8 3.5 91 1031.9 0.0 NE 0.0 0.0 0.1
23:33 4.8 3.5 91 1031.9 0.0 NE 0.0 0.0 0.1
23:35 4.8 3.5 91 1031.8 0.0 NE 0.0 0.0 0.1
23:36 4.8 3.5 91 1031.7 0.0 NE 0.0 0.0 0.1
23:37 4.9 3.6 91 1032.0 0.0 NE 0.0 0.0 0.1
23:38 4.8 3.5 91 1032.1 0.0 NE 0.0 0.0 0.1
23:39 4.9 3.6 91 1032.0 0.0 NE 0.0 0.0 0.1
23:40 4.9 3.6 91 1032.0 0.0 NE 0.0 0.0 0.1
23:41 4.9 3.6 91 1032.1 0.0 NE 0.0 0.0 0.1
23:42 4.9 3.6 91 1032.0 0.0 NE 0.0 0.0 0.1
23:43 4.9 3.6 91 1032.0 0.0 NE 0.0 0.0 0.1
23:44 4.8 3.5 91 1032.1 0.0 N 0.0 0.0 0.1
23:45 4.8 3.5 91 1032.1 0.0 N 0.0 0.0 0.1
23:46 4.8 3.5 91 1032.1 0.0 E 0.0 0.0 0.1
23:47 4.8 3.5 91 1032.0 0.0 E 0.0 0.0 0.1
23:48 4.8 3.5 91 1031.9 0.0 E 0.0 0.0 0.1
23:49 4.8 3.5 91 1032.0 0.0 E 0.0 0.0 0.1
23:50 4.8 3.5 91 1032.0 0.0 E 0.0 0.0 0.1
23:51 4.8 3.5 91 1031.8 0.0 E 0.0 0.0 0.1
23:52 4.8 3.5 91 1031.9 0.0 E 0.0 0.0 0.1
23:53 4.8 3.5 91 1031.8 0.0 E 0.0 0.0 0.1
23:54 4.7 3.4 91 1032.0 0.0 E 0.0 0.0 0.1
23:55 4.7 3.4 91 1032.0 0.0 E 0.0 0.0 0.1
23:56 4.7 3.4 91 1032.0 0.0 E 0.0 0.0 0.1
23:57 4.7 3.4 91 1031.9 0.0 SE 0.0 0.0 0.1
23:58 4.7 3.4 91 1031.9 0.0 SE 0.0 0.0 0.1
23:59 4.7 3.4 91 1031.9 0.0 SE 0.0 0.0 0.1

UK - WEATHER STATION TOPSITES - UK World Weather Websites

This is a private weather station, never base important decisions or events on data from this weather station. Although every effort has been made to make the data as accurate as possible it does not meet MetOffice standards. It is proved as a guide of local weather conditions. We accept no liability for any loss which may arise from use of the data.

Copyright © Carnkie Weather 2009 - 2019.